Wetterdaten: Samstag, 28.04.2018
Datum Zeit Temp. Aussen Temp. o. S. +5cm Feuchte Auss BlattFeu 1 Luftdruck Regen Sonnenschein Regendauer Solar Windben Empfang
28.04.2018 00:00 12,8 C 11,1 C 8,9 C 74 % 0 lf 1006,0 hPa 0,0 l/m 0 min 0 min 0 W/m 4,5 km/h (1 Bft) 97,87 %
28.04.2018 00:02 12,8 C 11,1 C 9,4 C 75 % 0 lf 1005,9 hPa 0,0 l/m 0 min 0 min 0 W/m 6,8 km/h (2 Bft) 93,33 %
28.04.2018 00:04 12,7 C 11,1 C 9,4 C 75 % 0 lf 1006,0 hPa 0,0 l/m 0 min 0 min 0 W/m 6,8 km/h (2 Bft) 97,83 %
28.04.2018 00:08 12,7 C 11,1 C 9,4 C 76 % 0 lf 1006,0 hPa 0,0 l/m 0 min 0 min 0 W/m 6,8 km/h (2 Bft) 97,56 %
28.04.2018 00:10 12,6 C 11,1 C 9,4 C 77 % 0 lf 1006,0 hPa 0,0 l/m 0 min 0 min 0 W/m 6,8 km/h (2 Bft) 97,87 %
28.04.2018 00:12 12,6 C 11,1 C 9,4 C 77 % 0 lf 1006,0 hPa 0,0 l/m 0 min 0 min 0 W/m 6,8 km/h (2 Bft) 97,87 %
28.04.2018 00:14 12,5 C 11,1 C 9,4 C 77 % 0 lf 1006,0 hPa 0,0 l/m 0 min 0 min 0 W/m 6,8 km/h (2 Bft) 100,00 %
28.04.2018 00:16 12,4 C 11,7 C 9,4 C 77 % 0 lf 1006,1 hPa 0,0 l/m 0 min 0 min 0 W/m 6,8 km/h (2 Bft) 100,00 %
28.04.2018 00:18 12,4 C 11,7 C 9,4 C 77 % 0 lf 1006,1 hPa 0,0 l/m 0 min 0 min 0 W/m 6,8 km/h (2 Bft) 95,74 %
28.04.2018 00:20 12,4 C 11,7 C 9,4 C 77 % 0 lf 1006,0 hPa 0,0 l/m 0 min 0 min 0 W/m 4,5 km/h (1 Bft) 100,00 %
28.04.2018 00:22 12,3 C 11,7 C 9,4 C 77 % 0 lf 1006,1 hPa 0,0 l/m 0 min 0 min 0 W/m 6,8 km/h (2 Bft) 97,87 %
28.04.2018 00:24 12,3 C 11,7 C 9,4 C 76 % 0 lf 1006,1 hPa 0,0 l/m 0 min 0 min 0 W/m 6,8 km/h (2 Bft) 100,00 %
28.04.2018 00:26 12,2 C 11,7 C 9,4 C 76 % 0 lf 1006,1 hPa 0,0 l/m 0 min 0 min 0 W/m 6,8 km/h (2 Bft) 100,00 %
28.04.2018 00:28 12,2 C 11,7 C 9,4 C 76 % 0 lf 1006,1 hPa 0,0 l/m 0 min 0 min 0 W/m 9,0 km/h (2 Bft) 97,87 %
28.04.2018 00:30 12,2 C 11,7 C 9,4 C 76 % 0 lf 1006,1 hPa 0,0 l/m 0 min 0 min 0 W/m 6,8 km/h (2 Bft) 97,83 %
28.04.2018 00:32 12,1 C 11,7 C 9,4 C 76 % 0 lf 1006,1 hPa 0,0 l/m 0 min 0 min 0 W/m 9,0 km/h (2 Bft) 95,74 %
28.04.2018 00:34 12,1 C 11,7 C 10,0 C 76 % 0 lf 1006,1 hPa 0,0 l/m 0 min 0 min 0 W/m 9,0 km/h (2 Bft) 93,62 %
28.04.2018 00:38 12,1 C 12,2 C 10,0 C 75 % 0 lf 1006,1 hPa 0,0 l/m 0 min 0 min 0 W/m 15,8 km/h (3 Bft) 98,94 %
28.04.2018 00:40 12,1 C 12,2 C 10,0 C 74 % 0 lf 1006,1 hPa 0,0 l/m 0 min 0 min 0 W/m 13,5 km/h (3 Bft) 100,00 %
28.04.2018 00:42 12,1 C 12,2 C 10,6 C 74 % 0 lf 1006,1 hPa 0,0 l/m 0 min 0 min 0 W/m 11,3 km/h (2 Bft) 97,83 %
28.04.2018 00:44 12,1 C 12,8 C 10,6 C 74 % 0 lf 1006,0 hPa 0,0 l/m 0 min 0 min 0 W/m 13,5 km/h (3 Bft) 100,00 %
28.04.2018 00:46 12,1 C 12,8 C 10,6 C 74 % 0 lf 1006,1 hPa 0,0 l/m 0 min 0 min 0 W/m 13,5 km/h (3 Bft) 93,75 %
28.04.2018 00:48 12,1 C 12,8 C 10,6 C 73 % 0 lf 1006,1 hPa 0,0 l/m 0 min 0 min 0 W/m 11,3 km/h (2 Bft) 100,00 %
28.04.2018 00:50 12,1 C 12,8 C 10,6 C 73 % 0 lf 1006,1 hPa 0,0 l/m 0 min 0 min 0 W/m 6,8 km/h (2 Bft) 100,00 %
28.04.2018 00:52 12,2 C 12,8 C 10,6 C 72 % 0 lf 1006,1 hPa 0,0 l/m 0 min 0 min 0 W/m 11,3 km/h (2 Bft) 97,87 %
28.04.2018 00:54 12,2 C 12,8 C 10,6 C 72 % 0 lf 1006,1 hPa 0,0 l/m 0 min 0 min 0 W/m 13,5 km/h (3 Bft) 95,65 %
28.04.2018 00:56 12,2 C 12,8 C 10,6 C 72 % 0 lf 1006,0 hPa 0,0 l/m 0 min 0 min 0 W/m 11,3 km/h (2 Bft) 95,74 %
28.04.2018 00:58 12,2 C 12,8 C 10,6 C 72 % 0 lf 1006,0 hPa 0,0 l/m 0 min 0 min 0 W/m 11,3 km/h (2 Bft) 97,87 %
28.04.2018 01:00 12,3 C 12,8 C 10,6 C 71 % 0 lf 1006,0 hPa 0,0 l/m 0 min 0 min 0 W/m 11,3 km/h (2 Bft) 97,87 %
28.04.2018 01:02 12,3 C 13,3 C 10,6 C 71 % 0 lf 1006,0 hPa 0,0 l/m 0 min 0 min 0 W/m 9,0 km/h (2 Bft) 97,87 %
28.04.2018 01:04 12,4 C 13,3 C 10,6 C 71 % 0 lf 1006,0 hPa 0,0 l/m 0 min 0 min 0 W/m 11,3 km/h (2 Bft) 93,62 %
28.04.2018 01:06 12,4 C 13,3 C 10,6 C 71 % 0 lf 1006,0 hPa 0,0 l/m 0 min 0 min 0 W/m 9,0 km/h (2 Bft) 91,30 %
28.04.2018 01:08 12,5 C 13,3 C 11,1 C 70 % 0 lf 1006,1 hPa 0,0 l/m 0 min 0 min 0 W/m 11,3 km/h (2 Bft) 97,87 %
28.04.2018 01:10 12,6 C 13,3 C 11,1 C 70 % 0 lf 1006,0 hPa 0,0 l/m 0 min 0 min 0 W/m 11,3 km/h (2 Bft) 95,74 %
28.04.2018 01:12 12,6 C 13,3 C 11,1 C 70 % 0 lf 1006,0 hPa 0,0 l/m 0 min 0 min 0 W/m 11,3 km/h (2 Bft) 95,74 %
28.04.2018 01:14 12,7 C 13,3 C 11,1 C 70 % 0 lf 1006,0 hPa 0,0 l/m 0 min 0 min 0 W/m 9,0 km/h (2 Bft) 93,62 %
28.04.2018 01:16 12,7 C 13,3 C 11,1 C 69 % 0 lf 1006,0 hPa 0,0 l/m 0 min 0 min 0 W/m 13,5 km/h (3 Bft) 95,74 %
28.04.2018 01:18 12,8 C 13,3 C 11,1 C 69 % 0 lf 1006,0 hPa 0,0 l/m 0 min 0 min 0 W/m 13,5 km/h (3 Bft) 93,62 %
28.04.2018 01:20 12,8 C 13,3 C 11,1 C 69 % 0 lf 1006,1 hPa 0,0 l/m 0 min 0 min 0 W/m 11,3 km/h (2 Bft) 93,62 %
28.04.2018 01:22 12,9 C 13,3 C 11,1 C 69 % 0 lf 1006,1 hPa 0,0 l/m 0 min 0 min 0 W/m 11,3 km/h (2 Bft) 93,62 %
28.04.2018 01:24 12,9 C 13,3 C 11,1 C 69 % 0 lf 1006,1 hPa 0,0 l/m 0 min 0 min 0 W/m 11,3 km/h (2 Bft) 93,62 %
28.04.2018 01:26 13,0 C 13,3 C 11,1 C 69 % 0 lf 1006,1 hPa 0,0 l/m 0 min 0 min 0 W/m 11,3 km/h (2 Bft) 93,62 %
28.04.2018 01:28 13,1 C 13,3 C 11,1 C 68 % 0 lf 1006,1 hPa 0,0 l/m 0 min 0 min 0 W/m 13,5 km/h (3 Bft) 95,65 %
28.04.2018 01:30 13,1 C 13,3 C 11,1 C 68 % 0 lf 1006,2 hPa 0,0 l/m 0 min 0 min 0 W/m 13,5 km/h (3 Bft) 93,62 %
28.04.2018 01:32 13,2 C 13,3 C 11,7 C 68 % 0 lf 1006,2 hPa 0,0 l/m 0 min 0 min 0 W/m 15,8 km/h (3 Bft) 95,74 %
28.04.2018 01:34 13,2 C 13,3 C 11,7 C 68 % 0 lf 1006,3 hPa 0,0 l/m 0 min 0 min 0 W/m 18,0 km/h (3 Bft) 95,74 %
28.04.2018 01:36 13,2 C 13,3 C 11,7 C 68 % 0 lf 1006,4 hPa 0,0 l/m 0 min 0 min 0 W/m 22,5 km/h (4 Bft) 97,87 %
28.04.2018 01:38 13,3 C 13,9 C 12,2 C 68 % 0 lf 1006,4 hPa 0,0 l/m 0 min 0 min 0 W/m 33,8 km/h (5 Bft) 89,36 %
28.04.2018 01:40 13,4 C 13,9 C 12,2 C 67 % 0 lf 1006,4 hPa 0,0 l/m 0 min 0 min 0 W/m 38,3 km/h (5 Bft) 95,65 %
28.04.2018 01:42 13,7 C 14,4 C 12,8 C 67 % 0 lf 1006,7 hPa 0,0 l/m 0 min 0 min 0 W/m 29,3 km/h (5 Bft) 95,74 %
28.04.2018 01:44 13,8 C 14,4 C 12,8 C 66 % 0 lf 1006,7 hPa 0,0 l/m 0 min 0 min 0 W/m 33,8 km/h (5 Bft) 97,87 %
28.04.2018 01:46 14,1 C 14,4 C 12,8 C 66 % 0 lf 1006,7 hPa 0,0 l/m 0 min 0 min 0 W/m 27,0 km/h (4 Bft) 97,87 %
28.04.2018 01:48 14,2 C 14,4 C 12,8 C 66 % 0 lf 1006,7 hPa 0,0 l/m 0 min 0 min 0 W/m 22,5 km/h (4 Bft) 97,87 %
28.04.2018 01:50 14,2 C 14,4 C 12,8 C 66 % 0 lf 1006,7 hPa 0,0 l/m 0 min 0 min 0 W/m 24,8 km/h (4 Bft) 100,00 %
28.04.2018 01:52 14,2 C 13,9 C 12,8 C 66 % 0 lf 1006,7 hPa 0,0 l/m 0 min 0 min 0 W/m 13,5 km/h (3 Bft) 100,00 %
28.04.2018 01:54 14,2 C 13,9 C 12,8 C 66 % 0 lf 1006,7 hPa 0,0 l/m 0 min 0 min 0 W/m 15,8 km/h (3 Bft) 95,74 %
28.04.2018 01:56 14,3 C 13,9 C 12,8 C 65 % 0 lf 1006,7 hPa 0,0 l/m 0 min 0 min 0 W/m 22,5 km/h (4 Bft) 97,87 %
28.04.2018 01:58 14,3 C 13,9 C 12,8 C 65 % 0 lf 1006,7 hPa 0,0 l/m 0 min 0 min 0 W/m 24,8 km/h (4 Bft) 97,87 %
28.04.2018 02:00 14,3 C 13,9 C 12,8 C 65 % 0 lf 1006,7 hPa 0,0 l/m 0 min 0 min 0 W/m 22,5 km/h (4 Bft) 95,74 %
28.04.2018 02:02 14,3 C 13,9 C 12,8 C 65 % 0 lf 1006,7 hPa 0,0 l/m 0 min 0 min 0 W/m 29,3 km/h (5 Bft) 91,49 %
28.04.2018 02:04 14,3 C 13,9 C 12,8 C 65 % 0 lf 1006,7 hPa 0,0 l/m 0 min 0 min 0 W/m 18,0 km/h (3 Bft) 95,65 %
28.04.2018 02:06 14,3 C 13,9 C 12,2 C 66 % 0 lf 1006,7 hPa 0,0 l/m 0 min 0 min 0 W/m 13,5 km/h (3 Bft) 93,62 %
28.04.2018 02:08 14,3 C 13,9 C 12,2 C 66 % 0 lf 1006,7 hPa 0,0 l/m 0 min 0 min 0 W/m 22,5 km/h (4 Bft) 91,49 %
28.04.2018 02:10 14,3 C 13,9 C 12,2 C 66 % 0 lf 1006,7 hPa 0,0 l/m 0 min 0 min 0 W/m 20,3 km/h (4 Bft) 95,74 %
28.04.2018 02:12 14,3 C 13,9 C 12,2 C 66 % 0 lf 1006,7 hPa 0,0 l/m 0 min 0 min 0 W/m 20,3 km/h (4 Bft) 95,74 %
28.04.2018 02:14 14,3 C 13,9 C 12,2 C 66 % 0 lf 1006,7 hPa 0,0 l/m 0 min 0 min 0 W/m 18,0 km/h (3 Bft) 91,49 %
28.04.2018 02:16 14,2 C 13,9 C 12,2 C 66 % 0 lf 1006,7 hPa 0,0 l/m 0 min 0 min 0 W/m 15,8 km/h (3 Bft) 95,74 %
28.04.2018 02:18 14,2 C 13,9 C 12,2 C 66 % 0 lf 1006,7 hPa 0,0 l/m 0 min 0 min 0 W/m 18,0 km/h (3 Bft) 95,74 %
28.04.2018 02:20 14,2 C 13,9 C 12,2 C 67 % 0 lf 1006,7 hPa 0,0 l/m 0 min 0 min 0 W/m 15,8 km/h (3 Bft) 93,62 %
28.04.2018 02:22 14,2 C 13,3 C 12,2 C 67 % 0 lf 1006,7 hPa 0,0 l/m 0 min 0 min 0 W/m 18,0 km/h (3 Bft) 95,74 %
28.04.2018 02:24 14,2 C 13,3 C 12,2 C 67 % 0 lf 1006,7 hPa 0,0 l/m 0 min 0 min 0 W/m 13,5 km/h (3 Bft) 93,62 %
28.04.2018 02:26 14,2 C 13,3 C 12,2 C 67 % 0 lf 1006,7 hPa 0,0 l/m 0 min 0 min 0 W/m 15,8 km/h (3 Bft) 93,48 %
28.04.2018 02:28 14,2 C 13,3 C 12,2 C 67 % 0 lf 1006,7 hPa 0,0 l/m 0 min 0 min 0 W/m 18,0 km/h (3 Bft) 91,49 %
28.04.2018 02:30 14,2 C 13,3 C 11,7 C 67 % 0 lf 1006,8 hPa 0,0 l/m 0 min 0 min 0 W/m 18,0 km/h (3 Bft) 95,74 %
28.04.2018 02:32 14,2 C 13,3 C 11,7 C 68 % 0 lf 1006,9 hPa 0,0 l/m 0 min 0 min 0 W/m 20,3 km/h (4 Bft) 95,74 %
28.04.2018 02:34 14,1 C 13,3 C 11,7 C 68 % 0 lf 1006,8 hPa 0,0 l/m 0 min 0 min 0 W/m 18,0 km/h (3 Bft) 95,74 %
28.04.2018 02:36 14,1 C 13,3 C 11,7 C 68 % 0 lf 1006,8 hPa 0,0 l/m 0 min 0 min 0 W/m 15,8 km/h (3 Bft) 91,49 %
28.04.2018 02:38 14,1 C 12,8 C 11,7 C 68 % 0 lf 1006,8 hPa 0,0 l/m 0 min 0 min 0 W/m 15,8 km/h (3 Bft) 95,74 %
28.04.2018 02:40 14,0 C 13,3 C 11,7 C 68 % 0 lf 1006,8 hPa 0,0 l/m 0 min 0 min 0 W/m 15,8 km/h (3 Bft) 95,74 %
28.04.2018 02:42 13,9 C 12,8 C 11,7 C 69 % 0 lf 1006,8 hPa 0,0 l/m 0 min 0 min 0 W/m 15,8 km/h (3 Bft) 91,49 %
28.04.2018 02:44 13,9 C 12,8 C 11,7 C 69 % 0 lf 1006,8 hPa 0,0 l/m 0 min 0 min 0 W/m 11,3 km/h (2 Bft) 93,48 %
28.04.2018 02:46 13,9 C 12,8 C 11,7 C 69 % 0 lf 1006,9 hPa 0,0 l/m 0 min 0 min 0 W/m 15,8 km/h (3 Bft) 97,87 %
28.04.2018 02:48 13,8 C 12,8 C 11,7 C 69 % 0 lf 1006,8 hPa 0,0 l/m 0 min 0 min 0 W/m 13,5 km/h (3 Bft) 97,87 %
28.04.2018 02:50 13,8 C 12,8 C 11,7 C 69 % 0 lf 1006,8 hPa 0,0 l/m 0 min 0 min 0 W/m 11,3 km/h (2 Bft) 97,87 %
28.04.2018 02:52 13,8 C 12,8 C 11,7 C 69 % 0 lf 1006,8 hPa 0,0 l/m 0 min 0 min 0 W/m 13,5 km/h (3 Bft) 97,87 %
28.04.2018 02:54 13,8 C 12,8 C 11,7 C 69 % 0 lf 1006,8 hPa 0,0 l/m 0 min 0 min 0 W/m 11,3 km/h (2 Bft) 97,87 %
28.04.2018 02:56 13,8 C 12,8 C 11,7 C 69 % 0 lf 1006,8 hPa 0,0 l/m 0 min 0 min 0 W/m 15,8 km/h (3 Bft) 100,00 %
28.04.2018 02:58 13,7 C 12,8 C 11,7 C 69 % 0 lf 1006,8 hPa 0,0 l/m 0 min 0 min 0 W/m 15,8 km/h (3 Bft) 100,00 %
28.04.2018 03:00 13,7 C 12,8 C 11,7 C 69 % 0 lf 1006,8 hPa 0,0 l/m 0 min 0 min 0 W/m 15,8 km/h (3 Bft) 97,87 %
28.04.2018 03:02 13,7 C 12,8 C 11,7 C 70 % 0 lf 1006,8 hPa 0,0 l/m 0 min 0 min 0 W/m 18,0 km/h (3 Bft) 95,74 %
28.04.2018 03:04 13,7 C 12,8 C 11,7 C 70 % 0 lf 1006,8 hPa 0,0 l/m 0 min 0 min 0 W/m 15,8 km/h (3 Bft) 100,00 %
28.04.2018 03:06 13,7 C 12,8 C 11,7 C 70 % 0 lf 1006,8 hPa 0,0 l/m 0 min 0 min 0 W/m 15,8 km/h (3 Bft) 100,00 %
28.04.2018 03:08 13,7 C 12,8 C 11,7 C 70 % 0 lf 1006,8 hPa 0,0 l/m 0 min 0 min 0 W/m 18,0 km/h (3 Bft) 97,83 %
28.04.2018 03:10 13,7 C 12,8 C 11,7 C 70 % 0 lf 1006,9 hPa 0,0 l/m 0 min 0 min 0 W/m 18,0 km/h (3 Bft) 93,62 %
28.04.2018 03:12 13,6 C 12,8 C 11,7 C 70 % 0 lf 1006,9 hPa 0,0 l/m 0 min 0 min 0 W/m 15,8 km/h (3 Bft) 97,87 %
28.04.2018 03:14 13,6 C 12,8 C 11,1 C 70 % 0 lf 1006,8 hPa 0,0 l/m 0 min 0 min 0 W/m 15,8 km/h (3 Bft) 97,87 %
28.04.2018 03:16 13,6 C 12,8 C 11,1 C 70 % 0 lf 1006,9 hPa 0,0 l/m 0 min 0 min 0 W/m 18,0 km/h (3 Bft) 97,87 %
28.04.2018 03:18 13,6 C 12,8 C 11,1 C 70 % 0 lf 1006,9 hPa 0,0 l/m 0 min 0 min 0 W/m 13,5 km/h (3 Bft) 97,87 %
28.04.2018 03:20 13,5 C 12,8 C 11,1 C 70 % 0 lf 1007,0 hPa 0,0 l/m 0 min 0 min 0 W/m 13,5 km/h (3 Bft) 97,83 %
28.04.2018 03:22 13,5 C 12,8 C 11,1 C 70 % 0 lf 1007,0 hPa 0,0 l/m 0 min 0 min 0 W/m 18,0 km/h (3 Bft) 97,87 %
28.04.2018 03:24 13,5 C 12,8 C 11,1 C 70 % 0 lf 1007,0 hPa 0,0 l/m 0 min 0 min 0 W/m 11,3 km/h (2 Bft) 97,87 %
28.04.2018 03:26 13,4 C 12,8 C 11,1 C 70 % 0 lf 1007,0 hPa 0,0 l/m 0 min 0 min 0 W/m 15,8 km/h (3 Bft) 95,74 %
28.04.2018 03:28 13,4 C 12,8 C 11,1 C 70 % 0 lf 1007,1 hPa 0,0 l/m 0 min 0 min 0 W/m 18,0 km/h (3 Bft) 97,87 %
28.04.2018 03:30 13,4 C 12,8 C 11,1 C 70 % 0 lf 1007,1 hPa 0,0 l/m 0 min 0 min 0 W/m 11,3 km/h (2 Bft) 91,49 %
28.04.2018 03:32 13,4 C 12,8 C 11,1 C 70 % 0 lf 1007,1 hPa 0,0 l/m 0 min 0 min 0 W/m 9,0 km/h (2 Bft) 97,83 %
28.04.2018 03:34 13,4 C 12,8 C 11,1 C 70 % 0 lf 1007,2 hPa 0,0 l/m 0 min 0 min 0 W/m 13,5 km/h (3 Bft) 97,87 %
28.04.2018 03:36 13,4 C 12,8 C 11,1 C 70 % 0 lf 1007,2 hPa 0,0 l/m 0 min 0 min 0 W/m 11,3 km/h (2 Bft) 95,74 %
28.04.2018 03:38 13,3 C 12,8 C 11,1 C 70 % 0 lf 1007,2 hPa 0,0 l/m 0 min 0 min 0 W/m 13,5 km/h (3 Bft) 93,62 %
28.04.2018 03:40 13,3 C 12,8 C 11,1 C 71 % 0 lf 1007,3 hPa 0,0 l/m 0 min 0 min 0 W/m 13,5 km/h (3 Bft) 91,49 %
28.04.2018 03:42 13,3 C 12,8 C 11,1 C 71 % 0 lf 1007,3 hPa 0,0 l/m 0 min 0 min 0 W/m 13,5 km/h (3 Bft) 100,00 %
28.04.2018 03:44 13,3 C 12,8 C 11,1 C 71 % 0 lf 1007,3 hPa 0,0 l/m 0 min 0 min 0 W/m 24,8 km/h (4 Bft) 100,00 %
28.04.2018 03:46 13,3 C 12,8 C 11,1 C 71 % 0 lf 1007,4 hPa 0,0 l/m 0 min 0 min 0 W/m 20,3 km/h (4 Bft) 97,87 %
28.04.2018 03:48 13,3 C 12,8 C 11,1 C 70 % 0 lf 1007,4 hPa 0,0 l/m 0 min 0 min 0 W/m 13,5 km/h (3 Bft) 97,87 %
28.04.2018 03:50 13,3 C 12,8 C 11,1 C 70 % 0 lf 1007,4 hPa 0,0 l/m 0 min 0 min 0 W/m 20,3 km/h (4 Bft) 100,00 %
28.04.2018 03:52 13,3 C 12,8 C 11,1 C 70 % 0 lf 1007,5 hPa 0,0 l/m 0 min 0 min 0 W/m 15,8 km/h (3 Bft) 100,00 %
28.04.2018 03:54 13,3 C 12,8 C 11,1 C 70 % 0 lf 1007,4 hPa 0,0 l/m 0 min 0 min 0 W/m 15,8 km/h (3 Bft) 95,65 %
28.04.2018 03:56 13,2 C 12,8 C 11,1 C 70 % 0 lf 1007,4 hPa 0,0 l/m 0 min 0 min 0 W/m 13,5 km/h (3 Bft) 97,87 %
28.04.2018 03:58 13,2 C 12,8 C 11,1 C 70 % 0 lf 1007,4 hPa 0,0 l/m 0 min 0 min 0 W/m 22,5 km/h (4 Bft) 95,74 %
28.04.2018 04:00 13,2 C 12,8 C 11,1 C 70 % 0 lf 1007,4 hPa 0,0 l/m 0 min 0 min 0 W/m 15,8 km/h (3 Bft) 97,87 %
28.04.2018 04:02 13,2 C 12,2 C 11,1 C 70 % 0 lf 1007,4 hPa 0,0 l/m 0 min 0 min 0 W/m 18,0 km/h (3 Bft) 96,55 %
28.04.2018 04:04 13,2 C 12,2 C 11,1 C 70 % 0 lf 1007,4 hPa 0,0 l/m 0 min 0 min 0 W/m 20,3 km/h (4 Bft) 95,74 %
28.04.2018 04:06 13,2 C 12,2 C 11,1 C 70 % 0 lf 1007,5 hPa 0,0 l/m 0 min 0 min 0 W/m 22,5 km/h (4 Bft) 97,83 %
28.04.2018 04:08 13,2 C 12,2 C 11,1 C 70 % 0 lf 1007,4 hPa 0,0 l/m 0 min 0 min 0 W/m 13,5 km/h (3 Bft) 97,87 %
28.04.2018 04:10 13,1 C 12,2 C 11,1 C 70 % 0 lf 1007,5 hPa 0,0 l/m 0 min 0 min 0 W/m 15,8 km/h (3 Bft) 95,74 %
28.04.2018 04:12 13,1 C 12,2 C 10,6 C 70 % 0 lf 1007,4 hPa 0,0 l/m 0 min 0 min 0 W/m 20,3 km/h (4 Bft) 97,87 %
28.04.2018 04:14 13,1 C 12,2 C 10,6 C 70 % 0 lf 1007,5 hPa 0,0 l/m 0 min 0 min 0 W/m 13,5 km/h (3 Bft) 97,87 %
28.04.2018 04:16 13,0 C 12,2 C 10,6 C 70 % 0 lf 1007,6 hPa 0,0 l/m 0 min 0 min 0 W/m 15,8 km/h (3 Bft) 95,74 %
28.04.2018 04:18 13,0 C 12,2 C 11,1 C 70 % 0 lf 1007,5 hPa 0,0 l/m 0 min 0 min 0 W/m 22,5 km/h (4 Bft) 97,83 %
28.04.2018 04:20 13,0 C 12,2 C 10,6 C 70 % 0 lf 1007,6 hPa 0,0 l/m 0 min 0 min 0 W/m 13,5 km/h (3 Bft) 95,74 %
28.04.2018 04:22 12,9 C 12,2 C 10,6 C 70 % 0 lf 1007,6 hPa 0,0 l/m 0 min 0 min 0 W/m 13,5 km/h (3 Bft) 97,87 %
28.04.2018 04:24 12,9 C 12,2 C 10,6 C 70 % 0 lf 1007,7 hPa 0,0 l/m 0 min 0 min 0 W/m 15,8 km/h (3 Bft) 95,74 %
28.04.2018 04:26 12,9 C 12,2 C 10,6 C 70 % 0 lf 1007,7 hPa 0,0 l/m 0 min 0 min 0 W/m 11,3 km/h (2 Bft) 97,87 %
28.04.2018 04:28 12,9 C 12,2 C 10,6 C 70 % 0 lf 1007,7 hPa 0,0 l/m 0 min 0 min 0 W/m 13,5 km/h (3 Bft) 93,62 %
28.04.2018 04:30 12,9 C 12,2 C 10,6 C 70 % 0 lf 1007,7 hPa 0,0 l/m 0 min 0 min 0 W/m 9,0 km/h (2 Bft) 97,83 %
28.04.2018 04:32 12,9 C 12,2 C 10,6 C 70 % 0 lf 1007,6 hPa 0,0 l/m 0 min 0 min 0 W/m 9,0 km/h (2 Bft) 97,87 %
28.04.2018 04:34 12,8 C 12,2 C 10,6 C 70 % 0 lf 1007,7 hPa 0,0 l/m 0 min 0 min 0 W/m 11,3 km/h (2 Bft) 97,87 %
28.04.2018 04:36 12,8 C 12,2 C 10,6 C 70 % 0 lf 1007,6 hPa 0,0 l/m 0 min 0 min 0 W/m 13,5 km/h (3 Bft) 97,87 %
28.04.2018 04:38 12,8 C 12,2 C 10,6 C 70 % 0 lf 1007,7 hPa 0,0 l/m 0 min 0 min 0 W/m 13,5 km/h (3 Bft) 97,87 %
28.04.2018 04:40 12,8 C 12,2 C 10,6 C 70 % 0 lf 1007,7 hPa 0,0 l/m 0 min 0 min 0 W/m 9,0 km/h (2 Bft) 95,74 %
28.04.2018 04:42 12,8 C 12,2 C 10,6 C 70 % 0 lf 1007,7 hPa 0,0 l/m 0 min 0 min 0 W/m 6,8 km/h (2 Bft) 93,48 %
28.04.2018 04:44 12,8 C 12,2 C 10,6 C 70 % 0 lf 1007,7 hPa 0,0 l/m 0 min 0 min 0 W/m 11,3 km/h (2 Bft) 89,36 %
28.04.2018 04:46 12,7 C 12,2 C 11,1 C 71 % 0 lf 1007,7 hPa 0,0 l/m 0 min 0 min 0 W/m 11,3 km/h (2 Bft) 92,86 %
28.04.2018 04:48 12,7 C 12,2 C 11,1 C 71 % 0 lf 1007,7 hPa 0,0 l/m 0 min 0 min 0 W/m 9,0 km/h (2 Bft) 95,65 %
28.04.2018 04:50 12,7 C 12,2 C 11,1 C 71 % 0 lf 1007,7 hPa 0,0 l/m 0 min 0 min 0 W/m 11,3 km/h (2 Bft) 97,87 %
28.04.2018 04:52 12,7 C 12,2 C 10,6 C 71 % 0 lf 1007,7 hPa 0,0 l/m 0 min 0 min 0 W/m 6,8 km/h (2 Bft) 95,74 %
28.04.2018 04:54 12,7 C 12,2 C 10,6 C 71 % 0 lf 1007,7 hPa 0,0 l/m 0 min 0 min 0 W/m 13,5 km/h (3 Bft) 97,87 %
28.04.2018 04:56 12,7 C 12,2 C 11,1 C 71 % 0 lf 1007,7 hPa 0,0 l/m 0 min 0 min 0 W/m 9,0 km/h (2 Bft) 97,87 %
28.04.2018 04:58 12,7 C 12,2 C 11,1 C 71 % 0 lf 1007,7 hPa 0,0 l/m 0 min 0 min 0 W/m 13,5 km/h (3 Bft) 97,87 %
28.04.2018 05:00 12,7 C 12,2 C 11,1 C 71 % 0 lf 1007,7 hPa 0,0 l/m 0 min 0 min 0 W/m 13,5 km/h (3 Bft) 95,65 %
28.04.2018 05:02 12,7 C 12,2 C 11,1 C 71 % 0 lf 1007,7 hPa 0,0 l/m 0 min 0 min 0 W/m 13,5 km/h (3 Bft) 93,75 %
28.04.2018 05:04 12,7 C 12,2 C 11,1 C 71 % 0 lf 1007,7 hPa 0,0 l/m 0 min 0 min 0 W/m 13,5 km/h (3 Bft) 97,87 %
28.04.2018 05:06 12,7 C 12,2 C 11,1 C 71 % 0 lf 1007,7 hPa 0,0 l/m 0 min 0 min 0 W/m 13,5 km/h (3 Bft) 97,87 %
28.04.2018 05:08 12,7 C 12,2 C 11,1 C 71 % 0 lf 1007,7 hPa 0,0 l/m 0 min 0 min 0 W/m 9,0 km/h (2 Bft) 95,74 %
28.04.2018 05:10 12,7 C 12,2 C 11,1 C 71 % 0 lf 1007,7 hPa 0,0 l/m 0 min 0 min 0 W/m 13,5 km/h (3 Bft) 95,74 %
28.04.2018 05:12 12,7 C 12,2 C 11,1 C 71 % 0 lf 1007,7 hPa 0,0 l/m 0 min 0 min 0 W/m 9,0 km/h (2 Bft) 89,13 %
28.04.2018 05:14 12,7 C 12,2 C 11,1 C 72 % 0 lf 1007,8 hPa 0,0 l/m 0 min 0 min 0 W/m 11,3 km/h (2 Bft) 97,87 %
28.04.2018 05:16 12,7 C 12,2 C 11,1 C 71 % 0 lf 1007,8 hPa 0,0 l/m 0 min 0 min 0 W/m 13,5 km/h (3 Bft) 95,83 %
28.04.2018 05:18 12,7 C 12,2 C 11,1 C 71 % 0 lf 1007,8 hPa 0,0 l/m 0 min 0 min 0 W/m 13,5 km/h (3 Bft) 93,62 %
28.04.2018 05:20 12,7 C 12,2 C 11,1 C 71 % 0 lf 1007,8 hPa 0,0 l/m 0 min 0 min 0 W/m 13,5 km/h (3 Bft) 95,74 %
28.04.2018 05:22 12,7 C 12,2 C 11,1 C 71 % 0 lf 1007,7 hPa 0,0 l/m 0 min 0 min 0 W/m 13,5 km/h (3 Bft) 95,74 %
28.04.2018 05:24 12,7 C 12,2 C 11,1 C 71 % 0 lf 1007,8 hPa 0,0 l/m 0 min 0 min 0 W/m 15,8 km/h (3 Bft) 93,48 %
28.04.2018 05:26 12,7 C 12,2 C 11,1 C 71 % 0 lf 1007,7 hPa 0,0 l/m 0 min 0 min 0 W/m 18,0 km/h (3 Bft) 93,62 %
28.04.2018 05:28 12,7 C 12,2 C 11,1 C 71 % 0 lf 1007,7 hPa 0,0 l/m 0 min 0 min 0 W/m 11,3 km/h (2 Bft) 95,74 %
28.04.2018 05:30 12,7 C 12,2 C 11,1 C 71 % 0 lf 1007,7 hPa 0,0 l/m 0 min 0 min 0 W/m 15,8 km/h (3 Bft) 93,62 %
28.04.2018 05:32 12,7 C 12,2 C 11,1 C 71 % 0 lf 1007,7 hPa 0,0 l/m 0 min 0 min 0 W/m 15,8 km/h (3 Bft) 95,74 %
28.04.2018 05:34 12,7 C 12,2 C 11,1 C 71 % 0 lf 1007,7 hPa 0,0 l/m 0 min 0 min 0 W/m 18,0 km/h (3 Bft) 95,74 %
28.04.2018 05:35 12,7 C 12,2 C 11,1 C 71 % 0 lf 1007,7 hPa 0,0 l/m 0 min 0 min 0 W/m 18,0 km/h (3 Bft) 98,25 %
28.04.2018 05:40 12,7 C 12,2 C 11,1 C 70 % 0 lf 1007,7 hPa 0,0 l/m 0 min 0 min 0 W/m 20,3 km/h (4 Bft) 37,72 %
28.04.2018 05:45 12,8 C 12,2 C 11,1 C 70 % 0 lf 1007,7 hPa 0,0 l/m 0 min 0 min 0 W/m 15,8 km/h (3 Bft) 22,81 %
28.04.2018 05:48 12,8 C 12,2 C 11,1 C 70 % 0 lf 1007,7 hPa 0,0 l/m 0 min 0 min 0 W/m 15,8 km/h (3 Bft) 98,00 %
28.04.2018 05:50 12,8 C 12,2 C 11,1 C 70 % 0 lf 1007,8 hPa 0,0 l/m 0 min 0 min 0 W/m 22,5 km/h (4 Bft) 95,74 %
28.04.2018 05:52 12,7 C 12,2 C 11,1 C 70 % 0 lf 1007,7 hPa 0,0 l/m 0 min 0 min 0 W/m 18,0 km/h (3 Bft) 97,87 %
28.04.2018 05:54 12,7 C 12,2 C 11,1 C 70 % 0 lf 1007,8 hPa 0,0 l/m 0 min 0 min 0 W/m 15,8 km/h (3 Bft) 97,83 %
28.04.2018 05:56 12,7 C 12,2 C 11,1 C 69 % 0 lf 1007,8 hPa 0,0 l/m 0 min 0 min 0 W/m 15,8 km/h (3 Bft) 97,87 %
28.04.2018 05:58 12,7 C 12,2 C 11,1 C 69 % 0 lf 1007,8 hPa 0,0 l/m 0 min 0 min 0 W/m 18,0 km/h (3 Bft) 95,74 %
28.04.2018 06:00 12,7 C 12,2 C 11,1 C 69 % 0 lf 1007,8 hPa 0,0 l/m 0 min 0 min 0 W/m 15,8 km/h (3 Bft) 97,87 %
28.04.2018 06:02 12,7 C 12,2 C 11,1 C 69 % 0 lf 1007,8 hPa 0,0 l/m 0 min 0 min 0 W/m 20,3 km/h (4 Bft) 97,87 %
28.04.2018 06:04 12,7 C 12,2 C 10,6 C 69 % 0 lf 1007,8 hPa 0,0 l/m 0 min 0 min 0 W/m 15,8 km/h (3 Bft) 95,74 %
28.04.2018 06:08 12,7 C 12,2 C 10,6 C 69 % 0 lf 1007,9 hPa 0,0 l/m 0 min 0 min 0 W/m 13,5 km/h (3 Bft) 97,85 %
28.04.2018 06:10 12,7 C 12,2 C 10,6 C 69 % 0 lf 1007,8 hPa 0,0 l/m 0 min 0 min 0 W/m 20,3 km/h (4 Bft) 97,87 %
28.04.2018 06:12 12,7 C 12,2 C 10,6 C 69 % 0 lf 1007,8 hPa 0,0 l/m 0 min 0 min 0 W/m 13,5 km/h (3 Bft) 97,87 %
28.04.2018 06:14 12,7 C 12,2 C 10,6 C 70 % 0 lf 1007,9 hPa 0,0 l/m 0 min 0 min 0 W/m 20,3 km/h (4 Bft) 97,87 %
28.04.2018 06:16 12,6 C 12,2 C 10,6 C 69 % 0 lf 1007,9 hPa 0,0 l/m 0 min 0 min 4 W/m 13,5 km/h (3 Bft) 97,87 %
28.04.2018 06:18 12,6 C 12,2 C 10,6 C 70 % 0 lf 1007,9 hPa 0,0 l/m 0 min 0 min 5 W/m 18,0 km/h (3 Bft) 97,83 %
28.04.2018 06:20 12,6 C 12,2 C 10,6 C 70 % 0 lf 1007,9 hPa 0,0 l/m 0 min 0 min 6 W/m 15,8 km/h (3 Bft) 95,74 %
28.04.2018 06:22 12,6 C 12,2 C 10,6 C 70 % 0 lf 1007,9 hPa 0,0 l/m 0 min 0 min 8 W/m 11,3 km/h (2 Bft) 93,62 %
28.04.2018 06:24 12,6 C 12,2 C 10,6 C 70 % 0 lf 1007,9 hPa 0,0 l/m 0 min 0 min 9 W/m 9,0 km/h (2 Bft) 97,87 %
28.04.2018 06:26 12,6 C 12,2 C 10,6 C 70 % 0 lf 1007,9 hPa 0,0 l/m 0 min 0 min 10 W/m 11,3 km/h (2 Bft) 100,00 %
28.04.2018 06:28 12,6 C 12,2 C 11,1 C 70 % 0 lf 1007,9 hPa 0,0 l/m 0 min 0 min 11 W/m 22,5 km/h (4 Bft) 100,00 %
28.04.2018 06:30 12,5 C 12,2 C 11,1 C 70 % 0 lf 1007,9 hPa 0,0 l/m 0 min 0 min 11 W/m 15,8 km/h (3 Bft) 100,00 %
28.04.2018 06:32 12,5 C 12,2 C 11,1 C 70 % 0 lf 1007,9 hPa 0,0 l/m 0 min 0 min 11 W/m 13,5 km/h (3 Bft) 97,87 %
28.04.2018 06:34 12,5 C 12,2 C 10,6 C 70 % 0 lf 1007,9 hPa 0,0 l/m 0 min 0 min 12 W/m 15,8 km/h (3 Bft) 95,74 %
28.04.2018 06:36 12,5 C 12,2 C 11,1 C 70 % 0 lf 1007,9 hPa 0,0 l/m 0 min 0 min 13 W/m 20,3 km/h (4 Bft) 100,00 %
28.04.2018 06:38 12,5 C 12,2 C 11,1 C 70 % 0 lf 1007,9 hPa 0,0 l/m 0 min 0 min 14 W/m 18,0 km/h (3 Bft) 91,49 %
28.04.2018 06:40 12,5 C 12,2 C 11,1 C 70 % 0 lf 1008,0 hPa 0,0 l/m 0 min 0 min 14 W/m 20,3 km/h (4 Bft) 100,00 %
28.04.2018 06:42 12,5 C 12,2 C 11,1 C 70 % 0 lf 1008,0 hPa 0,0 l/m 0 min 0 min 14 W/m 13,5 km/h (3 Bft) 97,87 %
28.04.2018 06:44 12,5 C 12,2 C 11,1 C 70 % 0 lf 1007,9 hPa 0,0 l/m 0 min 0 min 16 W/m 18,0 km/h (3 Bft) 97,87 %
28.04.2018 06:46 12,5 C 12,2 C 11,1 C 70 % 0 lf 1008,1 hPa 0,0 l/m 0 min 0 min 17 W/m 18,0 km/h (3 Bft) 100,00 %
28.04.2018 06:48 12,5 C 12,2 C 11,1 C 70 % 0 lf 1008,2 hPa 0,0 l/m 0 min 0 min 18 W/m 15,8 km/h (3 Bft) 97,87 %
28.04.2018 06:50 12,5 C 12,2 C 11,1 C 70 % 0 lf 1008,2 hPa 0,0 l/m 0 min 0 min 19 W/m 13,5 km/h (3 Bft) 100,00 %
28.04.2018 06:52 12,5 C 12,2 C 11,1 C 70 % 0 lf 1008,1 hPa 0,0 l/m 0 min 0 min 21 W/m 11,3 km/h (2 Bft) 95,65 %
28.04.2018 06:54 12,5 C 12,2 C 11,1 C 70 % 0 lf 1008,2 hPa 0,0 l/m 0 min 0 min 23 W/m 20,3 km/h (4 Bft) 97,87 %
28.04.2018 06:56 12,5 C 12,2 C 11,1 C 70 % 0 lf 1008,2 hPa 0,0 l/m 0 min 0 min 26 W/m 20,3 km/h (4 Bft) 97,87 %
28.04.2018 06:58 12,5 C 12,2 C 11,1 C 70 % 0 lf 1008,2 hPa 0,0 l/m 0 min 0 min 28 W/m 27,0 km/h (4 Bft) 97,87 %
28.04.2018 07:00 12,5 C 12,2 C 11,1 C 70 % 0 lf 1008,2 hPa 0,0 l/m 0 min 0 min 31 W/m 20,3 km/h (4 Bft) 97,87 %
28.04.2018 07:02 12,5 C 12,2 C 11,1 C 70 % 0 lf 1008,3 hPa 0,0 l/m 0 min 0 min 34 W/m 20,3 km/h (4 Bft) 95,83 %
28.04.2018 07:04 12,5 C 12,2 C 11,1 C 70 % 0 lf 1008,3 hPa 0,0 l/m 0 min 0 min 37 W/m 18,0 km/h (3 Bft) 93,48 %
28.04.2018 07:08 12,6 C 12,2 C 11,1 C 70 % 0 lf 1008,3 hPa 0,0 l/m 0 min 0 min 38 W/m 15,8 km/h (3 Bft) 96,81 %
28.04.2018 07:10 12,5 C 12,2 C 11,7 C 70 % 0 lf 1008,4 hPa 0,0 l/m 0 min 0 min 37 W/m 18,0 km/h (3 Bft) 95,74 %
28.04.2018 07:12 12,6 C 12,2 C 11,7 C 70 % 0 lf 1008,4 hPa 0,0 l/m 0 min 0 min 40 W/m 27,0 km/h (4 Bft) 95,74 %
28.04.2018 07:14 12,6 C 12,2 C 11,7 C 70 % 0 lf 1008,3 hPa 0,0 l/m 0 min 0 min 48 W/m 20,3 km/h (4 Bft) 95,74 %
28.04.2018 07:16 12,6 C 12,8 C 11,7 C 70 % 0 lf 1008,3 hPa 0,0 l/m 0 min 0 min 58 W/m 18,0 km/h (3 Bft) 95,65 %
28.04.2018 07:18 12,6 C 12,8 C 11,7 C 70 % 0 lf 1008,4 hPa 0,0 l/m 0 min 0 min 62 W/m 20,3 km/h (4 Bft) 93,62 %
28.04.2018 07:20 12,6 C 12,8 C 11,7 C 70 % 0 lf 1008,4 hPa 0,0 l/m 0 min 0 min 63 W/m 18,0 km/h (3 Bft) 93,62 %
28.04.2018 07:22 12,6 C 12,8 C 11,7 C 70 % 0 lf 1008,4 hPa 0,0 l/m 0 min 0 min 62 W/m 15,8 km/h (3 Bft) 93,62 %
28.04.2018 07:24 12,6 C 12,8 C 11,7 C 70 % 0 lf 1008,5 hPa 0,0 l/m 0 min 0 min 59 W/m 22,5 km/h (4 Bft) 91,49 %
28.04.2018 07:26 12,6 C 12,8 C 11,7 C 70 % 0 lf 1008,5 hPa 0,0 l/m 0 min 0 min 57 W/m 18,0 km/h (3 Bft) 93,62 %
28.04.2018 07:28 12,6 C 12,8 C 11,7 C 70 % 0 lf 1008,5 hPa 0,0 l/m 0 min 0 min 56 W/m 24,8 km/h (4 Bft) 93,48 %
28.04.2018 07:30 12,6 C 12,8 C 11,7 C 70 % 0 lf 1008,5 hPa 0,0 l/m 0 min 0 min 56 W/m 18,0 km/h (3 Bft) 91,49 %
28.04.2018 07:32 12,6 C 12,8 C 11,7 C 70 % 0 lf 1008,5 hPa 0,0 l/m 0 min 0 min 56 W/m 13,5 km/h (3 Bft) 93,62 %
28.04.2018 07:34 12,7 C 12,8 C 11,7 C 70 % 0 lf 1008,6 hPa 0,0 l/m 0 min 0 min 58 W/m 15,8 km/h (3 Bft) 93,62 %
28.04.2018 07:36 12,7 C 12,8 C 11,7 C 70 % 0 lf 1008,6 hPa 0,0 l/m 0 min 0 min 62 W/m 22,5 km/h (4 Bft) 91,49 %
28.04.2018 07:38 12,7 C 12,8 C 11,7 C 70 % 0 lf 1008,6 hPa 0,0 l/m 0 min 0 min 63 W/m 24,8 km/h (4 Bft) 93,48 %
28.04.2018 07:40 12,7 C 12,8 C 11,7 C 70 % 0 lf 1008,6 hPa 0,0 l/m 0 min 0 min 68 W/m 20,3 km/h (4 Bft) 91,49 %
28.04.2018 07:42 12,7 C 12,8 C 11,7 C 70 % 0 lf 1008,6 hPa 0,0 l/m 0 min 0 min 76 W/m 22,5 km/h (4 Bft) 93,62 %
28.04.2018 07:44 12,7 C 12,8 C 12,2 C 70 % 0 lf 1008,6 hPa 0,0 l/m 0 min 0 min 84 W/m 27,0 km/h (4 Bft) 93,62 %
28.04.2018 07:46 12,7 C 12,8 C 12,2 C 70 % 0 lf 1008,6 hPa 0,0 l/m 0 min 0 min 97 W/m 20,3 km/h (4 Bft) 93,62 %
28.04.2018 07:48 12,7 C 13,3 C 12,2 C 70 % 0 lf 1008,6 hPa 0,0 l/m 0 min 0 min 107 W/m 13,5 km/h (3 Bft) 93,62 %
28.04.2018 07:50 12,7 C 13,3 C 12,2 C 70 % 0 lf 1008,6 hPa 0,0 l/m 0 min 0 min 113 W/m 20,3 km/h (4 Bft) 95,65 %
28.04.2018 07:52 12,7 C 13,3 C 12,2 C 70 % 0 lf 1008,6 hPa 0,0 l/m 0 min 0 min 114 W/m 20,3 km/h (4 Bft) 91,49 %
28.04.2018 07:54 12,8 C 13,3 C 12,2 C 70 % 0 lf 1008,6 hPa 0,0 l/m 0 min 0 min 121 W/m 29,3 km/h (5 Bft) 97,87 %
28.04.2018 07:56 12,8 C 13,3 C 12,2 C 70 % 0 lf 1008,7 hPa 0,0 l/m 2 min 0 min 125 W/m 27,0 km/h (4 Bft) 97,87 %
28.04.2018 07:58 12,8 C 13,3 C 12,2 C 70 % 0 lf 1008,7 hPa 0,0 l/m 0 min 0 min 122 W/m 24,8 km/h (4 Bft) 97,87 %
28.04.2018 08:00 12,8 C 13,3 C 12,8 C 70 % 0 lf 1008,8 hPa 0,0 l/m 0 min 0 min 121 W/m 22,5 km/h (4 Bft) 97,87 %
28.04.2018 08:02 12,8 C 13,3 C 12,8 C 70 % 0 lf 1008,8 hPa 0,0 l/m 0 min 0 min 124 W/m 20,3 km/h (4 Bft) 97,83 %
28.04.2018 08:04 12,9 C 13,3 C 12,2 C 70 % 0 lf 1008,9 hPa 0,0 l/m 0 min 0 min 123 W/m 24,8 km/h (4 Bft) 95,74 %
28.04.2018 08:06 12,9 C 13,9 C 12,8 C 70 % 0 lf 1008,8 hPa 0,0 l/m 0 min 0 min 123 W/m 18,0 km/h (3 Bft) 100,00 %
28.04.2018 08:08 12,9 C 13,3 C 12,8 C 70 % 0 lf 1008,8 hPa 0,0 l/m 0 min 0 min 125 W/m 20,3 km/h (4 Bft) 97,87 %
28.04.2018 08:10 12,9 C 13,9 C 12,8 C 70 % 0 lf 1008,9 hPa 0,0 l/m 0 min 0 min 127 W/m 13,5 km/h (3 Bft) 97,87 %
28.04.2018 08:12 12,9 C 13,3 C 12,8 C 70 % 0 lf 1008,8 hPa 0,0 l/m 0 min 0 min 128 W/m 24,8 km/h (4 Bft) 97,87 %
28.04.2018 08:14 12,9 C 13,3 C 12,8 C 70 % 0 lf 1008,9 hPa 0,0 l/m 0 min 0 min 126 W/m 31,5 km/h (5 Bft) 100,00 %
28.04.2018 08:16 12,9 C 13,3 C 12,8 C 70 % 0 lf 1008,9 hPa 0,0 l/m 0 min 0 min 120 W/m 29,3 km/h (5 Bft) 93,62 %
28.04.2018 08:18 13,0 C 13,3 C 12,8 C 70 % 0 lf 1008,9 hPa 0,0 l/m 0 min 0 min 108 W/m 11,3 km/h (2 Bft) 100,00 %
28.04.2018 08:20 12,9 C 13,3 C 12,8 C 70 % 0 lf 1008,9 hPa 0,0 l/m 0 min 0 min 100 W/m 24,8 km/h (4 Bft) 97,87 %
28.04.2018 08:22 13,0 C 13,3 C 12,8 C 70 % 0 lf 1009,0 hPa 0,0 l/m 0 min 0 min 98 W/m 20,3 km/h (4 Bft) 100,00 %
28.04.2018 08:24 13,0 C 13,3 C 12,8 C 70 % 0 lf 1009,0 hPa 0,0 l/m 0 min 0 min 98 W/m 18,0 km/h (3 Bft) 100,00 %
28.04.2018 08:26 13,0 C 13,3 C 12,8 C 70 % 0 lf 1008,9 hPa 0,0 l/m 0 min 0 min 106 W/m 22,5 km/h (4 Bft) 100,00 %
28.04.2018 08:28 13,0 C 13,3 C 12,8 C 70 % 0 lf 1008,9 hPa 0,0 l/m 0 min 0 min 119 W/m 13,5 km/h (3 Bft) 97,87 %
28.04.2018 08:30 13,0 C 13,3 C 12,8 C 70 % 0 lf 1008,9 hPa 0,0 l/m 0 min 0 min 127 W/m 24,8 km/h (4 Bft) 100,00 %
28.04.2018 08:32 13,0 C 13,3 C 12,8 C 70 % 0 lf 1009,0 hPa 0,0 l/m 0 min 0 min 129 W/m 18,0 km/h (3 Bft) 100,00 %
28.04.2018 08:34 13,0 C 13,3 C 12,8 C 70 % 0 lf 1009,0 hPa 0,0 l/m 0 min 0 min 141 W/m 18,0 km/h (3 Bft) 97,87 %
28.04.2018 08:36 13,0 C 13,9 C 12,8 C 70 % 0 lf 1009,0 hPa 0,0 l/m 0 min 0 min 152 W/m 20,3 km/h (4 Bft) 95,74 %
28.04.2018 08:38 13,1 C 13,9 C 12,8 C 70 % 0 lf 1009,0 hPa 0,0 l/m 0 min 0 min 152 W/m 22,5 km/h (4 Bft) 97,83 %
28.04.2018 08:40 13,1 C 13,9 C 13,3 C 70 % 0 lf 1009,0 hPa 0,0 l/m 0 min 0 min 160 W/m 31,5 km/h (5 Bft) 97,87 %
28.04.2018 08:42 13,1 C 13,9 C 13,3 C 70 % 0 lf 1009,1 hPa 0,0 l/m 0 min 0 min 167 W/m 29,3 km/h (5 Bft) 100,00 %
28.04.2018 08:44 13,1 C 13,9 C 13,3 C 70 % 0 lf 1009,1 hPa 0,0 l/m 0 min 0 min 170 W/m 18,0 km/h (3 Bft) 100,00 %
28.04.2018 08:46 13,1 C 13,9 C 13,3 C 70 % 0 lf 1009,1 hPa 0,0 l/m 0 min 0 min 173 W/m 22,5 km/h (4 Bft) 100,00 %
28.04.2018 08:48 13,1 C 13,9 C 13,3 C 70 % 0 lf 1009,2 hPa 0,0 l/m 0 min 0 min 175 W/m 31,5 km/h (5 Bft) 97,87 %
28.04.2018 08:50 13,2 C 13,9 C 13,3 C 70 % 0 lf 1009,2 hPa 0,0 l/m 0 min 0 min 174 W/m 24,8 km/h (4 Bft) 100,00 %
28.04.2018 08:52 13,2 C 14,4 C 13,3 C 71 % 0 lf 1009,1 hPa 0,0 l/m 0 min 0 min 172 W/m 18,0 km/h (3 Bft) 97,87 %
28.04.2018 08:54 13,2 C 13,9 C 13,3 C 70 % 0 lf 1009,1 hPa 0,0 l/m 0 min 0 min 187 W/m 33,8 km/h (5 Bft) 95,74 %
28.04.2018 08:56 13,2 C 14,4 C 13,3 C 70 % 0 lf 1009,2 hPa 0,0 l/m 0 min 0 min 193 W/m 22,5 km/h (4 Bft) 95,74 %
28.04.2018 08:58 13,2 C 13,9 C 13,3 C 70 % 0 lf 1009,1 hPa 0,0 l/m 0 min 0 min 187 W/m 40,6 km/h (6 Bft) 93,62 %
28.04.2018 09:00 13,2 C 14,4 C 13,3 C 70 % 0 lf 1009,2 hPa 0,0 l/m 0 min 0 min 176 W/m 24,8 km/h (4 Bft) 97,83 %
28.04.2018 09:02 13,3 C 14,4 C 13,3 C 70 % 0 lf 1009,3 hPa 0,0 l/m 0 min 0 min 153 W/m 22,5 km/h (4 Bft) 95,74 %
28.04.2018 09:04 13,3 C 14,4 C 13,9 C 70 % 0 lf 1009,3 hPa 0,0 l/m 0 min 0 min 148 W/m 11,3 km/h (2 Bft) 91,49 %
28.04.2018 09:06 13,3 C 14,4 C 13,3 C 70 % 0 lf 1009,2 hPa 0,0 l/m 0 min 0 min 158 W/m 22,5 km/h (4 Bft) 97,87 %
28.04.2018 09:08 13,3 C 14,4 C 13,9 C 70 % 0 lf 1009,3 hPa 0,0 l/m 0 min 0 min 161 W/m 24,8 km/h (4 Bft) 97,87 %
28.04.2018 09:10 13,4 C 14,4 C 13,9 C 70 % 0 lf 1009,2 hPa 0,0 l/m 0 min 0 min 162 W/m 24,8 km/h (4 Bft) 97,87 %
28.04.2018 09:12 13,4 C 14,4 C 13,9 C 70 % 0 lf 1009,3 hPa 0,0 l/m 0 min 0 min 174 W/m 13,5 km/h (3 Bft) 97,83 %
28.04.2018 09:14 13,4 C 14,4 C 13,9 C 70 % 0 lf 1009,2 hPa 0,0 l/m 0 min 0 min 180 W/m 13,5 km/h (3 Bft) 95,74 %
28.04.2018 09:16 13,4 C 14,4 C 13,9 C 70 % 0 lf 1009,2 hPa 0,0 l/m 0 min 0 min 169 W/m 24,8 km/h (4 Bft) 95,74 %
28.04.2018 09:18 13,4 C 14,4 C 13,9 C 70 % 0 lf 1009,3 hPa 0,0 l/m 0 min 0 min 152 W/m 15,8 km/h (3 Bft) 95,74 %
28.04.2018 09:20 13,4 C 14,4 C 13,9 C 70 % 0 lf 1009,2 hPa 0,0 l/m 0 min 0 min 172 W/m 18,0 km/h (3 Bft) 93,62 %
28.04.2018 09:22 13,5 C 14,4 C 13,9 C 70 % 0 lf 1009,3 hPa 0,0 l/m 0 min 0 min 189 W/m 15,8 km/h (3 Bft) 95,74 %
28.04.2018 09:24 13,5 C 14,4 C 13,9 C 70 % 0 lf 1009,2 hPa 0,0 l/m 0 min 0 min 191 W/m 24,8 km/h (4 Bft) 95,65 %
28.04.2018 09:26 13,5 C 14,4 C 13,9 C 70 % 0 lf 1009,2 hPa 0,0 l/m 0 min 0 min 192 W/m 24,8 km/h (4 Bft) 95,74 %
28.04.2018 09:28 13,5 C 14,4 C 13,3 C 70 % 0 lf 1009,3 hPa 0,0 l/m 0 min 0 min 193 W/m 27,0 km/h (4 Bft) 93,62 %
28.04.2018 09:30 13,5 C 14,4 C 13,3 C 69 % 0 lf 1009,3 hPa 0,0 l/m 0 min 0 min 195 W/m 29,3 km/h (5 Bft) 93,62 %
28.04.2018 09:32 13,4 C 14,4 C 13,3 C 70 % 0 lf 1009,3 hPa 0,0 l/m 0 min 0 min 198 W/m 27,0 km/h (4 Bft) 95,74 %
28.04.2018 09:34 13,4 C 14,4 C 13,9 C 70 % 0 lf 1009,3 hPa 0,0 l/m 0 min 0 min 220 W/m 27,0 km/h (4 Bft) 95,74 %
28.04.2018 09:36 13,5 C 15,0 C 13,9 C 70 % 0 lf 1009,3 hPa 0,0 l/m 0 min 0 min 241 W/m 20,3 km/h (4 Bft) 97,83 %
28.04.2018 09:38 13,5 C 15,0 C 13,9 C 70 % 0 lf 1009,3 hPa 0,0 l/m 2 min 0 min 269 W/m 24,8 km/h (4 Bft) 93,62 %
28.04.2018 09:40 13,6 C 16,1 C 14,4 C 70 % 0 lf 1009,3 hPa 0,0 l/m 2 min 0 min 318 W/m 33,8 km/h (5 Bft) 95,74 %
28.04.2018 09:42 13,6 C 16,7 C 15,0 C 70 % 0 lf 1009,3 hPa 0,0 l/m 2 min 0 min 336 W/m 18,0 km/h (3 Bft) 93,62 %
28.04.2018 09:44 13,6 C 16,7 C 15,0 C 70 % 0 lf 1009,3 hPa 0,0 l/m 2 min 0 min 312 W/m 27,0 km/h (4 Bft) 95,74 %
28.04.2018 09:46 13,7 C 16,7 C 15,0 C 70 % 0 lf 1009,3 hPa 0,0 l/m 2 min 0 min 314 W/m 29,3 km/h (5 Bft) 97,87 %
28.04.2018 09:48 13,8 C 16,1 C 15,0 C 70 % 0 lf 1009,4 hPa 0,0 l/m 2 min 0 min 308 W/m 33,8 km/h (5 Bft) 95,65 %
28.04.2018 09:50 13,8 C 16,1 C 15,0 C 70 % 0 lf 1009,4 hPa 0,0 l/m 2 min 0 min 317 W/m 27,0 km/h (4 Bft) 100,00 %
28.04.2018 09:52 13,9 C 16,1 C 15,0 C 70 % 0 lf 1009,5 hPa 0,0 l/m 2 min 0 min 308 W/m 24,8 km/h (4 Bft) 97,87 %
28.04.2018 09:54 13,9 C 16,1 C 15,0 C 70 % 0 lf 1009,5 hPa 0,0 l/m 2 min 0 min 313 W/m 29,3 km/h (5 Bft) 100,00 %
28.04.2018 09:56 13,9 C 16,1 C 15,0 C 70 % 0 lf 1009,4 hPa 0,0 l/m 2 min 0 min 299 W/m 27,0 km/h (4 Bft) 93,62 %
28.04.2018 09:58 13,9 C 16,1 C 15,0 C 69 % 0 lf 1009,4 hPa 0,0 l/m 2 min 0 min 279 W/m 27,0 km/h (4 Bft) 93,62 %
28.04.2018 10:00 13,9 C 15,6 C 14,4 C 69 % 0 lf 1009,7 hPa 0,0 l/m 2 min 0 min 288 W/m 40,6 km/h (6 Bft) 97,83 %
28.04.2018 10:02 13,9 C 15,6 C 14,4 C 69 % 0 lf 1009,5 hPa 0,0 l/m 2 min 0 min 319 W/m 31,5 km/h (5 Bft) 97,87 %
28.04.2018 10:04 14,0 C 16,7 C 15,6 C 70 % 0 lf 1009,4 hPa 0,0 l/m 2 min 0 min 353 W/m 22,5 km/h (4 Bft) 91,49 %
28.04.2018 10:08 14,2 C 17,8 C 16,7 C 70 % 0 lf 1009,5 hPa 0,0 l/m 4 min 0 min 419 W/m 27,0 km/h (4 Bft) 94,68 %
28.04.2018 10:10 14,2 C 17,8 C 16,7 C 70 % 0 lf 1009,5 hPa 0,0 l/m 2 min 0 min 376 W/m 29,3 km/h (5 Bft) 93,62 %
28.04.2018 10:12 14,2 C 16,7 C 16,1 C 69 % 0 lf 1009,7 hPa 0,0 l/m 2 min 0 min 362 W/m 36,0 km/h (5 Bft) 95,65 %
28.04.2018 10:14 14,2 C 16,7 C 16,1 C 68 % 0 lf 1009,5 hPa 0,0 l/m 2 min 0 min 344 W/m 31,5 km/h (5 Bft) 95,74 %
28.04.2018 10:16 14,3 C 17,2 C 16,1 C 69 % 0 lf 1009,5 hPa 0,0 l/m 2 min 0 min 340 W/m 24,8 km/h (4 Bft) 95,74 %
28.04.2018 10:18 14,3 C 17,2 C 16,1 C 68 % 0 lf 1009,5 hPa 0,0 l/m 2 min 0 min 362 W/m 27,0 km/h (4 Bft) 95,74 %
28.04.2018 10:20 14,3 C 16,7 C 16,1 C 68 % 0 lf 1009,5 hPa 0,0 l/m 2 min 0 min 413 W/m 22,5 km/h (4 Bft) 95,74 %
28.04.2018 10:22 14,4 C 17,2 C 16,7 C 69 % 0 lf 1009,4 hPa 0,0 l/m 2 min 0 min 444 W/m 27,0 km/h (4 Bft) 93,62 %
28.04.2018 10:24 14,4 C 17,8 C 16,7 C 69 % 0 lf 1009,4 hPa 0,0 l/m 2 min 0 min 422 W/m 20,3 km/h (4 Bft) 95,65 %
28.04.2018 10:26 14,5 C 18,3 C 17,2 C 69 % 0 lf 1009,5 hPa 0,0 l/m 2 min 0 min 435 W/m 29,3 km/h (5 Bft) 97,87 %
28.04.2018 10:28 14,6 C 18,3 C 17,2 C 69 % 0 lf 1009,4 hPa 0,0 l/m 2 min 0 min 468 W/m 31,5 km/h (5 Bft) 93,62 %
28.04.2018 10:30 14,6 C 18,3 C 17,2 C 68 % 0 lf 1009,5 hPa 0,0 l/m 2 min 0 min 429 W/m 22,5 km/h (4 Bft) 95,74 %
28.04.2018 10:32 14,7 C 18,9 C 17,8 C 68 % 0 lf 1009,5 hPa 0,0 l/m 2 min 0 min 477 W/m 29,3 km/h (5 Bft) 93,62 %
28.04.2018 10:34 14,8 C 19,4 C 17,8 C 68 % 0 lf 1009,5 hPa 0,0 l/m 2 min 0 min 510 W/m 29,3 km/h (5 Bft) 95,65 %
28.04.2018 10:36 14,8 C 18,3 C 17,8 C 68 % 0 lf 1009,8 hPa 0,0 l/m 2 min 0 min 522 W/m 31,5 km/h (5 Bft) 95,74 %
28.04.2018 10:38 14,9 C 18,9 C 17,2 C 68 % 0 lf 1009,5 hPa 0,0 l/m 2 min 0 min 479 W/m 31,5 km/h (5 Bft) 93,62 %
28.04.2018 10:40 14,9 C 18,9 C 17,8 C 68 % 0 lf 1009,5 hPa 0,0 l/m 2 min 0 min 480 W/m 36,0 km/h (5 Bft) 91,49 %
28.04.2018 10:42 14,9 C 17,8 C 17,2 C 68 % 0 lf 1009,6 hPa 0,0 l/m 2 min 0 min 432 W/m 38,3 km/h (5 Bft) 95,74 %
28.04.2018 10:44 15,0 C 17,8 C 16,7 C 67 % 0 lf 1009,6 hPa 0,0 l/m 2 min 0 min 416 W/m 33,8 km/h (5 Bft) 97,87 %
28.04.2018 10:46 15,0 C 17,8 C 16,7 C 67 % 0 lf 1009,7 hPa 0,0 l/m 2 min 0 min 401 W/m 27,0 km/h (4 Bft) 95,83 %
28.04.2018 10:48 15,0 C 17,8 C 16,7 C 67 % 0 lf 1009,7 hPa 0,0 l/m 2 min 0 min 418 W/m 27,0 km/h (4 Bft) 93,62 %
28.04.2018 10:50 14,9 C 18,3 C 16,7 C 67 % 0 lf 1009,7 hPa 0,0 l/m 2 min 0 min 463 W/m 29,3 km/h (5 Bft) 95,74 %
28.04.2018 10:52 15,0 C 18,3 C 17,2 C 67 % 0 lf 1009,7 hPa 0,0 l/m 2 min 0 min 486 W/m 27,0 km/h (4 Bft) 93,62 %
28.04.2018 10:54 15,1 C 20,6 C 18,9 C 68 % 0 lf 1009,7 hPa 0,0 l/m 2 min 0 min 556 W/m 29,3 km/h (5 Bft) 97,87 %
28.04.2018 10:56 15,2 C 20,6 C 19,4 C 67 % 0 lf 1009,7 hPa 0,0 l/m 2 min 0 min 675 W/m 27,0 km/h (4 Bft) 97,87 %
28.04.2018 10:58 15,2 C 20,6 C 19,4 C 67 % 0 lf 1009,7 hPa 0,0 l/m 2 min 0 min 658 W/m 31,5 km/h (5 Bft) 97,83 %
28.04.2018 11:00 15,3 C 20,0 C 19,4 C 67 % 0 lf 1009,7 hPa 0,0 l/m 2 min 0 min 616 W/m 31,5 km/h (5 Bft) 97,87 %
28.04.2018 11:02 15,3 C 20,0 C 18,3 C 67 % 0 lf 1009,8 hPa 0,0 l/m 2 min 0 min 553 W/m 29,3 km/h (5 Bft) 97,87 %
28.04.2018 11:04 15,4 C 20,0 C 18,3 C 67 % 0 lf 1009,7 hPa 0,0 l/m 2 min 0 min 497 W/m 22,5 km/h (4 Bft) 97,87 %
28.04.2018 11:06 15,4 C 20,0 C 18,3 C 67 % 0 lf 1009,7 hPa 0,0 l/m 2 min 0 min 542 W/m 31,5 km/h (5 Bft) 97,87 %
28.04.2018 11:08 15,5 C 19,4 C 17,8 C 65 % 0 lf 1009,9 hPa 0,0 l/m 2 min 0 min 570 W/m 33,8 km/h (5 Bft) 95,65 %
28.04.2018 11:10 15,4 C 19,4 C 17,8 C 66 % 0 lf 1009,8 hPa 0,0 l/m 2 min 0 min 482 W/m 24,8 km/h (4 Bft) 97,87 %
28.04.2018 11:12 15,5 C 19,4 C 17,8 C 66 % 0 lf 1009,9 hPa 0,0 l/m 2 min 0 min 467 W/m 33,8 km/h (5 Bft) 97,87 %
28.04.2018 11:14 15,5 C 20,0 C 17,8 C 66 % 0 lf 1009,8 hPa 0,0 l/m 2 min 0 min 584 W/m 31,5 km/h (5 Bft) 100,00 %
28.04.2018 11:16 15,5 C 20,0 C 18,9 C 67 % 0 lf 1009,8 hPa 0,0 l/m 2 min 0 min 605 W/m 18,0 km/h (3 Bft) 100,00 %
28.04.2018 11:18 15,6 C 21,1 C 19,4 C 67 % 0 lf 1009,8 hPa 0,0 l/m 2 min 0 min 546 W/m 20,3 km/h (4 Bft) 100,00 %
28.04.2018 11:20 15,7 C 20,6 C 18,9 C 67 % 0 lf 1009,8 hPa 0,0 l/m 2 min 0 min 516 W/m 31,5 km/h (5 Bft) 97,83 %
28.04.2018 11:22 15,7 C 21,1 C 20,0 C 67 % 0 lf 1009,8 hPa 0,0 l/m 2 min 0 min 628 W/m 22,5 km/h (4 Bft) 95,74 %
28.04.2018 11:24 15,8 C 20,6 C 20,0 C 66 % 0 lf 1009,8 hPa 0,0 l/m 2 min 0 min 598 W/m 22,5 km/h (4 Bft) 100,00 %
28.04.2018 11:26 15,9 C 20,6 C 19,4 C 66 % 0 lf 1009,9 hPa 0,0 l/m 2 min 0 min 545 W/m 24,8 km/h (4 Bft) 97,87 %
28.04.2018 11:28 15,9 C 20,6 C 19,4 C 66 % 0 lf 1009,9 hPa 0,0 l/m 2 min 0 min 483 W/m 15,8 km/h (3 Bft) 97,87 %
28.04.2018 11:30 16,0 C 20,6 C 19,4 C 66 % 0 lf 1009,9 hPa 0,0 l/m 2 min 0 min 457 W/m 31,5 km/h (5 Bft) 97,87 %
28.04.2018 11:32 16,1 C 20,0 C 18,9 C 65 % 0 lf 1009,9 hPa 0,0 l/m 2 min 0 min 468 W/m 22,5 km/h (4 Bft) 97,83 %
28.04.2018 11:34 16,1 C 20,6 C 19,4 C 66 % 0 lf 1009,9 hPa 0,0 l/m 2 min 0 min 479 W/m 15,8 km/h (3 Bft) 97,87 %
28.04.2018 11:36 16,2 C 19,4 C 18,9 C 65 % 0 lf 1010,0 hPa 0,0 l/m 2 min 0 min 482 W/m 31,5 km/h (5 Bft) 95,74 %
28.04.2018 11:38 16,1 C 19,4 C 18,9 C 65 % 0 lf 1009,9 hPa 0,0 l/m 2 min 0 min 468 W/m 24,8 km/h (4 Bft) 97,87 %
28.04.2018 11:40 16,1 C 18,9 C 18,3 C 65 % 0 lf 1009,9 hPa 0,0 l/m 2 min 0 min 452 W/m 31,5 km/h (5 Bft) 97,87 %
28.04.2018 11:42 16,0 C 18,3 C 17,8 C 64 % 0 lf 1010,0 hPa 0,0 l/m 2 min 0 min 433 W/m 38,3 km/h (5 Bft) 95,74 %
28.04.2018 11:44 15,9 C 17,8 C 17,2 C 64 % 0 lf 1010,0 hPa 0,0 l/m 2 min 0 min 430 W/m 31,5 km/h (5 Bft) 93,48 %
28.04.2018 11:46 15,8 C 17,2 C 17,8 C 64 % 0 lf 1010,1 hPa 0,0 l/m 2 min 0 min 432 W/m 31,5 km/h (5 Bft) 97,87 %
28.04.2018 11:48 15,8 C 17,8 C 17,8 C 65 % 0 lf 1010,0 hPa 0,0 l/m 2 min 0 min 432 W/m 27,0 km/h (4 Bft) 95,74 %
28.04.2018 11:50 15,7 C 17,8 C 17,2 C 65 % 0 lf 1010,1 hPa 0,0 l/m 2 min 0 min 424 W/m 33,8 km/h (5 Bft) 97,87 %
28.04.2018 11:52 15,7 C 17,2 C 17,8 C 65 % 0 lf 1010,0 hPa 0,0 l/m 2 min 0 min 412 W/m 29,3 km/h (5 Bft) 97,87 %
28.04.2018 11:54 15,6 C 17,8 C 17,2 C 65 % 0 lf 1010,1 hPa 0,0 l/m 2 min 0 min 394 W/m 38,3 km/h (5 Bft) 97,87 %
28.04.2018 11:56 15,6 C 17,2 C 17,2 C 65 % 0 lf 1010,0 hPa 0,0 l/m 2 min 0 min 391 W/m 38,3 km/h (5 Bft) 97,83 %
28.04.2018 11:58 15,5 C 17,2 C 16,7 C 65 % 0 lf 1010,2 hPa 0,0 l/m 2 min 0 min 395 W/m 33,8 km/h (5 Bft) 95,74 %
28.04.2018 12:00 15,4 C 17,2 C 17,2 C 65 % 0 lf 1010,1 hPa 0,0 l/m 2 min 0 min 394 W/m 29,3 km/h (5 Bft) 95,74 %
28.04.2018 12:02 15,4 C 16,7 C 17,2 C 65 % 0 lf 1010,1 hPa 0,0 l/m 2 min 0 min 378 W/m 24,8 km/h (4 Bft) 97,87 %
28.04.2018 12:04 15,4 C 17,2 C 17,8 C 66 % 0 lf 1010,1 hPa 0,0 l/m 2 min 0 min 377 W/m 29,3 km/h (5 Bft) 97,87 %
28.04.2018 12:08 15,4 C 17,8 C 18,3 C 66 % 0 lf 1010,1 hPa 0,0 l/m 4 min 0 min 386 W/m 29,3 km/h (5 Bft) 93,90 %
28.04.2018 12:10 15,5 C 17,8 C 18,3 C 66 % 0 lf 1010,0 hPa 0,0 l/m 2 min 0 min 404 W/m 31,5 km/h (5 Bft) 98,28 %
28.04.2018 12:12 15,6 C 17,8 C 18,3 C 66 % 0 lf 1009,9 hPa 0,0 l/m 2 min 0 min 412 W/m 24,8 km/h (4 Bft) 97,14 %
28.04.2018 12:14 15,6 C 18,3 C 18,3 C 66 % 0 lf 1010,1 hPa 0,0 l/m 2 min 0 min 437 W/m 22,5 km/h (4 Bft) 97,87 %
28.04.2018 12:16 15,6 C 17,8 C 17,8 C 66 % 0 lf 1010,0 hPa 0,0 l/m 2 min 0 min 461 W/m 31,5 km/h (5 Bft) 98,33 %
28.04.2018 12:18 15,7 C 18,3 C 18,3 C 66 % 0 lf 1010,2 hPa 0,0 l/m 2 min 0 min 465 W/m 20,3 km/h (4 Bft) 91,43 %
28.04.2018 12:20 15,7 C 17,8 C 17,8 C 66 % 0 lf 1010,2 hPa 0,0 l/m 2 min 0 min 444 W/m 40,6 km/h (6 Bft) 96,55 %
28.04.2018 12:22 15,6 C 17,8 C 17,8 C 65 % 0 lf 1010,3 hPa 0,0 l/m 2 min 0 min 443 W/m 36,0 km/h (5 Bft) 97,87 %
28.04.2018 12:24 15,6 C 17,8 C 18,3 C 66 % 0 lf 1010,3 hPa 0,0 l/m 2 min 0 min 494 W/m 33,8 km/h (5 Bft) 100,00 %
28.04.2018 12:26 15,6 C 17,8 C 18,3 C 66 % 0 lf 1010,2 hPa 0,0 l/m 2 min 0 min 502 W/m 27,0 km/h (4 Bft) 95,08 %
28.04.2018 12:28 15,6 C 17,8 C 18,3 C 66 % 0 lf 1010,1 hPa 0,0 l/m 2 min 0 min 453 W/m 27,0 km/h (4 Bft) 97,83 %
28.04.2018 12:30 15,6 C 17,2 C 18,3 C 65 % 0 lf 1010,2 hPa 0,0 l/m 2 min 0 min 410 W/m 29,3 km/h (5 Bft) 91,49 %
28.04.2018 12:32 15,6 C 17,8 C 17,8 C 65 % 0 lf 1010,1 hPa 0,0 l/m 2 min 0 min 404 W/m 36,0 km/h (5 Bft) 95,74 %
28.04.2018 12:34 15,6 C 17,8 C 18,3 C 65 % 0 lf 1010,1 hPa 0,0 l/m 2 min 0 min 427 W/m 24,8 km/h (4 Bft) 93,62 %
28.04.2018 12:36 15,7 C 18,9 C 18,9 C 65 % 0 lf 1010,0 hPa 0,0 l/m 2 min 0 min 440 W/m 20,3 km/h (4 Bft) 94,29 %
28.04.2018 12:38 15,7 C 18,3 C 18,9 C 65 % 0 lf 1010,1 hPa 0,0 l/m 2 min 0 min 482 W/m 20,3 km/h (4 Bft) 96,55 %
28.04.2018 12:40 15,8 C 18,9 C 18,9 C 66 % 0 lf 1010,2 hPa 0,0 l/m 2 min 0 min 480 W/m 24,8 km/h (4 Bft) 94,44 %
28.04.2018 12:42 15,8 C 18,9 C 18,9 C 66 % 0 lf 1010,2 hPa 0,0 l/m 2 min 0 min 502 W/m 29,3 km/h (5 Bft) 93,48 %
28.04.2018 12:44 15,8 C 18,3 C 18,9 C 64 % 0 lf 1010,1 hPa 0,0 l/m 2 min 0 min 464 W/m 24,8 km/h (4 Bft) 95,74 %
28.04.2018 12:46 15,9 C 18,9 C 19,4 C 65 % 0 lf 1010,1 hPa 0,0 l/m 2 min 0 min 511 W/m 20,3 km/h (4 Bft) 95,74 %
28.04.2018 12:48 16,0 C 20,6 C 20,0 C 67 % 0 lf 1010,1 hPa 0,0 l/m 2 min 0 min 557 W/m 9,0 km/h (2 Bft) 93,62 %
28.04.2018 12:50 16,1 C 20,6 C 20,6 C 66 % 0 lf 1010,1 hPa 0,0 l/m 2 min 0 min 586 W/m 24,8 km/h (4 Bft) 96,61 %
28.04.2018 12:52 16,2 C 20,6 C 20,6 C 65 % 0 lf 1010,1 hPa 0,0 l/m 2 min 0 min 569 W/m 31,5 km/h (5 Bft) 95,65 %
28.04.2018 12:54 16,3 C 20,0 C 19,4 C 64 % 0 lf 1010,1 hPa 0,0 l/m 2 min 0 min 493 W/m 24,8 km/h (4 Bft) 95,74 %
28.04.2018 12:56 16,3 C 19,4 C 19,4 C 64 % 0 lf 1010,1 hPa 0,0 l/m 2 min 0 min 451 W/m 31,5 km/h (5 Bft) 91,43 %
28.04.2018 12:58 16,3 C 19,4 C 18,9 C 63 % 0 lf 1010,1 hPa 0,0 l/m 2 min 0 min 466 W/m 27,0 km/h (4 Bft) 97,87 %
28.04.2018 13:00 16,4 C 20,0 C 18,9 C 63 % 0 lf 1010,1 hPa 0,0 l/m 2 min 0 min 514 W/m 24,8 km/h (4 Bft) 98,31 %
28.04.2018 13:02 16,4 C 20,6 C 20,0 C 64 % 0 lf 1010,1 hPa 0,0 l/m 2 min 0 min 528 W/m 18,0 km/h (3 Bft) 97,14 %
28.04.2018 13:04 16,5 C 20,0 C 19,4 C 64 % 0 lf 1010,1 hPa 0,0 l/m 2 min 0 min 432 W/m 18,0 km/h (3 Bft) 94,83 %
28.04.2018 13:08 16,5 C 18,3 C 18,9 C 63 % 0 lf 1010,0 hPa 0,0 l/m 4 min 0 min 388 W/m 24,8 km/h (4 Bft) 97,87 %
28.04.2018 13:10 16,5 C 18,3 C 19,4 C 64 % 0 lf 1010,1 hPa 0,0 l/m 0 min 0 min 355 W/m 18,0 km/h (3 Bft) 93,62 %
28.04.2018 13:12 16,5 C 18,3 C 18,9 C 63 % 0 lf 1010,2 hPa 0,0 l/m 0 min 0 min 332 W/m 24,8 km/h (4 Bft) 97,14 %
28.04.2018 13:14 16,5 C 18,3 C 18,3 C 63 % 0 lf 1010,0 hPa 0,0 l/m 0 min 0 min 337 W/m 22,5 km/h (4 Bft) 100,00 %
28.04.2018 13:16 16,5 C 18,3 C 18,3 C 62 % 0 lf 1010,2 hPa 0,0 l/m 0 min 0 min 338 W/m 20,3 km/h (4 Bft) 100,00 %
28.04.2018 13:18 16,5 C 17,8 C 18,3 C 62 % 0 lf 1010,2 hPa 0,0 l/m 0 min 0 min 351 W/m 24,8 km/h (4 Bft) 95,65 %
28.04.2018 13:20 16,4 C 17,8 C 17,8 C 62 % 0 lf 1010,0 hPa 0,0 l/m 0 min 0 min 363 W/m 29,3 km/h (5 Bft) 96,61 %
28.04.2018 13:22 16,4 C 17,8 C 18,3 C 63 % 0 lf 1010,1 hPa 0,0 l/m 0 min 0 min 373 W/m 18,0 km/h (3 Bft) 95,74 %
28.04.2018 13:24 16,4 C 18,3 C 18,3 C 63 % 0 lf 1010,2 hPa 0,0 l/m 0 min 0 min 373 W/m 22,5 km/h (4 Bft) 100,00 %
28.04.2018 13:26 16,4 C 18,3 C 18,3 C 63 % 0 lf 1010,2 hPa 0,0 l/m 0 min 0 min 375 W/m 18,0 km/h (3 Bft) 97,87 %
28.04.2018 13:28 16,4 C 18,9 C 18,3 C 62 % 0 lf 1010,2 hPa 0,0 l/m 2 min 0 min 405 W/m 20,3 km/h (4 Bft) 98,28 %
28.04.2018 13:30 16,3 C 19,4 C 18,9 C 62 % 0 lf 1010,2 hPa 0,0 l/m 2 min 0 min 445 W/m 22,5 km/h (4 Bft) 97,87 %
28.04.2018 13:32 16,4 C 21,1 C 18,9 C 63 % 0 lf 1010,2 hPa 0,0 l/m 2 min 0 min 446 W/m 22,5 km/h (4 Bft) 100,00 %
28.04.2018 13:34 16,4 C 21,7 C 18,9 C 62 % 0 lf 1010,2 hPa 0,0 l/m 2 min 0 min 542 W/m 22,5 km/h (4 Bft) 97,14 %
28.04.2018 13:36 16,6 C 22,2 C 18,9 C 63 % 0 lf 1010,1 hPa 0,0 l/m 2 min 0 min 1034 W/m 29,3 km/h (5 Bft) 97,87 %
28.04.2018 13:38 16,6 C 22,2 C 18,3 C 62 % 0 lf 1010,0 hPa 0,0 l/m 2 min 0 min 637 W/m 31,5 km/h (5 Bft) 95,74 %
28.04.2018 13:40 16,7 C 23,3 C 18,3 C 62 % 0 lf 1010,1 hPa 0,0 l/m 2 min 0 min 631 W/m 27,0 km/h (4 Bft) 95,74 %
28.04.2018 13:42 16,8 C 25,0 C 19,4 C 63 % 0 lf 1009,9 hPa 0,0 l/m 2 min 0 min 1065 W/m 31,5 km/h (5 Bft) 98,28 %
28.04.2018 13:44 17,0 C 24,4 C 20,0 C 61 % 0 lf 1009,8 hPa 0,0 l/m 2 min 0 min 1092 W/m 29,3 km/h (5 Bft) 97,87 %
28.04.2018 13:46 17,1 C 25,0 C 20,0 C 60 % 0 lf 1009,8 hPa 0,0 l/m 2 min 0 min 920 W/m 27,0 km/h (4 Bft) 95,74 %
28.04.2018 13:48 17,2 C 25,0 C 20,0 C 58 % 0 lf 1009,8 hPa 0,0 l/m 2 min 0 min 916 W/m 24,8 km/h (4 Bft) 97,14 %
28.04.2018 13:50 17,3 C 25,6 C 20,6 C 59 % 0 lf 1009,8 hPa 0,0 l/m 2 min 0 min 802 W/m 27,0 km/h (4 Bft) 93,10 %
28.04.2018 13:52 17,4 C 23,3 C 20,0 C 59 % 0 lf 1009,8 hPa 0,0 l/m 2 min 0 min 802 W/m 27,0 km/h (4 Bft) 95,74 %
28.04.2018 13:54 17,4 C 21,7 C 20,0 C 59 % 0 lf 1009,8 hPa 0,0 l/m 2 min 0 min 403 W/m 27,0 km/h (4 Bft) 97,14 %
28.04.2018 13:56 17,5 C 20,6 C 20,0 C 58 % 0 lf 1009,8 hPa 0,0 l/m 0 min 0 min 385 W/m 22,5 km/h (4 Bft) 97,87 %
28.04.2018 13:58 17,6 C 20,6 C 20,0 C 58 % 0 lf 1009,8 hPa 0,0 l/m 2 min 0 min 428 W/m 20,3 km/h (4 Bft) 93,22 %
28.04.2018 14:00 17,6 C 20,0 C 20,6 C 59 % 0 lf 1009,8 hPa 0,0 l/m 2 min 0 min 426 W/m 13,5 km/h (3 Bft) 94,29 %
28.04.2018 14:02 17,6 C 21,1 C 20,6 C 60 % 0 lf 1009,8 hPa 0,0 l/m 2 min 0 min 453 W/m 18,0 km/h (3 Bft) 94,83 %
28.04.2018 14:04 17,6 C 21,1 C 20,6 C 60 % 0 lf 1009,8 hPa 0,0 l/m 2 min 0 min 483 W/m 15,8 km/h (3 Bft) 94,29 %
28.04.2018 14:08 17,7 C 23,3 C 21,1 C 58 % 0 lf 1009,8 hPa 0,0 l/m 4 min 0 min 731 W/m 20,3 km/h (4 Bft) 94,68 %
28.04.2018 14:10 17,8 C 22,2 C 20,6 C 57 % 0 lf 1009,8 hPa 0,0 l/m 2 min 0 min 1035 W/m 29,3 km/h (5 Bft) 96,61 %
28.04.2018 14:12 17,9 C 22,8 C 20,6 C 57 % 0 lf 1009,8 hPa 0,0 l/m 2 min 0 min 385 W/m 11,3 km/h (2 Bft) 94,29 %
28.04.2018 14:14 17,9 C 22,2 C 20,6 C 57 % 0 lf 1009,8 hPa 0,0 l/m 2 min 0 min 385 W/m 18,0 km/h (3 Bft) 95,74 %
28.04.2018 14:16 17,9 C 21,7 C 20,6 C 57 % 0 lf 1009,8 hPa 0,0 l/m 2 min 0 min 385 W/m 27,0 km/h (4 Bft) 95,65 %
28.04.2018 14:18 17,9 C 22,2 C 20,6 C 57 % 0 lf 1009,8 hPa 0,0 l/m 2 min 0 min 385 W/m 31,5 km/h (5 Bft) 95,74 %
28.04.2018 14:20 18,0 C 22,2 C 20,6 C 57 % 0 lf 1009,8 hPa 0,0 l/m 2 min 0 min 402 W/m 31,5 km/h (5 Bft) 94,92 %
28.04.2018 14:22 18,1 C 21,7 C 20,6 C 57 % 0 lf 1009,8 hPa 0,0 l/m 2 min 0 min 442 W/m 20,3 km/h (4 Bft) 95,74 %
28.04.2018 14:24 18,1 C 21,7 C 21,1 C 58 % 0 lf 1009,8 hPa 0,0 l/m 2 min 0 min 392 W/m 15,8 km/h (3 Bft) 93,48 %
28.04.2018 14:26 18,1 C 19,4 C 20,6 C 56 % 0 lf 1009,8 hPa 0,0 l/m 0 min 0 min 374 W/m 31,5 km/h (5 Bft) 93,62 %
28.04.2018 14:28 18,1 C 19,4 C 20,0 C 56 % 0 lf 1009,8 hPa 0,0 l/m 0 min 0 min 360 W/m 40,6 km/h (6 Bft) 97,87 %
28.04.2018 14:30 18,0 C 21,1 C 20,0 C 57 % 0 lf 1009,8 hPa 0,0 l/m 2 min 0 min 396 W/m 20,3 km/h (4 Bft) 95,74 %
28.04.2018 14:32 18,1 C 22,8 C 20,6 C 57 % 0 lf 1009,8 hPa 0,0 l/m 2 min 0 min 917 W/m 20,3 km/h (4 Bft) 100,00 %
28.04.2018 14:34 18,1 C 22,8 C 20,6 C 57 % 0 lf 1009,8 hPa 0,0 l/m 2 min 0 min 517 W/m 31,5 km/h (5 Bft) 98,31 %
28.04.2018 14:36 18,1 C 22,2 C 21,1 C 55 % 0 lf 1009,7 hPa 0,0 l/m 2 min 0 min 740 W/m 31,5 km/h (5 Bft) 100,00 %
28.04.2018 14:38 18,1 C 21,7 C 20,6 C 53 % 0 lf 1009,8 hPa 0,0 l/m 2 min 0 min 939 W/m 29,3 km/h (5 Bft) 95,74 %
28.04.2018 14:40 18,1 C 22,2 C 20,6 C 54 % 0 lf 1009,6 hPa 0,0 l/m 2 min 0 min 939 W/m 29,3 km/h (5 Bft) 97,87 %
28.04.2018 14:42 18,2 C 23,9 C 21,7 C 55 % 0 lf 1009,6 hPa 0,0 l/m 2 min 0 min 939 W/m 13,5 km/h (3 Bft) 100,00 %
28.04.2018 14:44 18,3 C 22,8 C 21,7 C 55 % 0 lf 1009,6 hPa 0,0 l/m 2 min 0 min 939 W/m 24,8 km/h (4 Bft) 95,74 %
28.04.2018 14:46 18,3 C 20,0 C 20,6 C 53 % 0 lf 1009,6 hPa 0,0 l/m 0 min 0 min 338 W/m 31,5 km/h (5 Bft) 100,00 %
28.04.2018 14:48 18,3 C 20,0 C 19,4 C 54 % 0 lf 1009,7 hPa 0,0 l/m 0 min 0 min 251 W/m 18,0 km/h (3 Bft) 97,14 %
28.04.2018 14:50 18,3 C 19,4 C 18,9 C 56 % 0 lf 1009,7 hPa 0,0 l/m 0 min 0 min 229 W/m 20,3 km/h (4 Bft) 100,00 %
28.04.2018 14:52 18,2 C 18,9 C 18,9 C 57 % 0 lf 1009,7 hPa 0,0 l/m 0 min 0 min 203 W/m 18,0 km/h (3 Bft) 97,87 %
28.04.2018 14:54 18,2 C 18,9 C 18,3 C 57 % 0 lf 1009,8 hPa 0,0 l/m 0 min 0 min 205 W/m 22,5 km/h (4 Bft) 97,14 %
28.04.2018 14:56 18,1 C 18,3 C 17,8 C 57 % 0 lf 1009,8 hPa 0,0 l/m 0 min 0 min 210 W/m 20,3 km/h (4 Bft) 97,87 %
28.04.2018 14:58 18,0 C 18,9 C 18,3 C 57 % 0 lf 1009,8 hPa 0,0 l/m 0 min 0 min 251 W/m 18,0 km/h (3 Bft) 95,74 %
28.04.2018 15:00 17,9 C 18,9 C 18,9 C 58 % 0 lf 1009,8 hPa 0,0 l/m 0 min 0 min 312 W/m 20,3 km/h (4 Bft) 95,74 %
28.04.2018 15:02 17,8 C 18,9 C 18,9 C 58 % 0 lf 1009,8 hPa 0,0 l/m 0 min 0 min 336 W/m 24,8 km/h (4 Bft) 94,83 %
28.04.2018 15:04 17,8 C 18,9 C 19,4 C 58 % 0 lf 1009,8 hPa 0,0 l/m 2 min 0 min 367 W/m 15,8 km/h (3 Bft) 94,29 %
28.04.2018 15:06 17,8 C 18,9 C 19,4 C 58 % 0 lf 1009,9 hPa 0,0 l/m 0 min 0 min 353 W/m 22,5 km/h (4 Bft) 97,87 %
28.04.2018 15:08 17,7 C 18,9 C 18,9 C 58 % 0 lf 1009,9 hPa 0,0 l/m 0 min 0 min 308 W/m 22,5 km/h (4 Bft) 93,62 %
28.04.2018 15:10 17,6 C 18,9 C 18,9 C 58 % 0 lf 1009,9 hPa 0,0 l/m 0 min 0 min 262 W/m 24,8 km/h (4 Bft) 93,10 %
28.04.2018 15:12 17,6 C 18,9 C 18,9 C 58 % 0 lf 1009,9 hPa 0,0 l/m 0 min 0 min 263 W/m 9,0 km/h (2 Bft) 95,74 %
28.04.2018 15:14 17,6 C 18,9 C 19,4 C 59 % 0 lf 1009,9 hPa 0,0 l/m 0 min 0 min 306 W/m 13,5 km/h (3 Bft) 94,29 %
28.04.2018 15:16 17,6 C 18,9 C 19,4 C 59 % 0 lf 1009,9 hPa 0,0 l/m 0 min 0 min 322 W/m 13,5 km/h (3 Bft) 93,62 %
28.04.2018 15:18 17,6 C 19,4 C 19,4 C 59 % 0 lf 1009,9 hPa 0,0 l/m 2 min 0 min 360 W/m 15,8 km/h (3 Bft) 95,74 %
28.04.2018 15:20 17,6 C 20,0 C 20,0 C 59 % 0 lf 1009,9 hPa 0,0 l/m 2 min 0 min 357 W/m 22,5 km/h (4 Bft) 94,92 %
28.04.2018 15:22 17,6 C 19,4 C 20,0 C 58 % 0 lf 1009,9 hPa 0,0 l/m 0 min 0 min 342 W/m 18,0 km/h (3 Bft) 95,74 %
28.04.2018 15:24 17,6 C 19,4 C 20,0 C 58 % 0 lf 1009,9 hPa 0,0 l/m 0 min 0 min 330 W/m 18,0 km/h (3 Bft) 95,65 %
28.04.2018 15:26 17,7 C 19,4 C 19,4 C 58 % 0 lf 1009,9 hPa 0,0 l/m 0 min 0 min 294 W/m 20,3 km/h (4 Bft) 91,43 %
28.04.2018 15:28 17,6 C 18,9 C 19,4 C 57 % 0 lf 1009,8 hPa 0,0 l/m 0 min 0 min 288 W/m 20,3 km/h (4 Bft) 93,62 %
28.04.2018 15:30 17,6 C 18,9 C 18,9 C 57 % 0 lf 1009,9 hPa 0,0 l/m 0 min 0 min 307 W/m 24,8 km/h (4 Bft) 96,61 %
28.04.2018 15:32 17,6 C 18,9 C 18,9 C 58 % 0 lf 1009,8 hPa 0,0 l/m 0 min 0 min 313 W/m 20,3 km/h (4 Bft) 97,14 %
28.04.2018 15:34 17,6 C 19,4 C 18,9 C 58 % 0 lf 1009,7 hPa 0,0 l/m 0 min 0 min 323 W/m 11,3 km/h (2 Bft) 94,92 %
28.04.2018 15:36 17,6 C 20,0 C 19,4 C 58 % 0 lf 1009,7 hPa 0,0 l/m 0 min 0 min 339 W/m 13,5 km/h (3 Bft) 95,65 %
28.04.2018 15:38 17,6 C 20,6 C 20,0 C 59 % 0 lf 1009,7 hPa 0,0 l/m 2 min 0 min 378 W/m 13,5 km/h (3 Bft) 94,29 %
28.04.2018 15:40 17,6 C 21,1 C 20,6 C 59 % 0 lf 1009,7 hPa 0,0 l/m 2 min 0 min 464 W/m 15,8 km/h (3 Bft) 95,74 %
28.04.2018 15:42 17,7 C 21,1 C 21,1 C 59 % 0 lf 1009,7 hPa 0,0 l/m 2 min 0 min 485 W/m 22,5 km/h (4 Bft) 94,92 %
28.04.2018 15:44 17,7 C 21,7 C 21,7 C 58 % 0 lf 1009,7 hPa 0,0 l/m 2 min 0 min 574 W/m 18,0 km/h (3 Bft) 94,29 %
28.04.2018 15:46 17,8 C 22,8 C 22,8 C 58 % 0 lf 1009,7 hPa 0,0 l/m 2 min 0 min 733 W/m 18,0 km/h (3 Bft) 96,55 %
28.04.2018 15:48 17,8 C 22,2 C 22,2 C 57 % 0 lf 1009,6 hPa 0,0 l/m 2 min 0 min 614 W/m 18,0 km/h (3 Bft) 97,22 %
28.04.2018 15:50 17,9 C 21,1 C 21,7 C 57 % 0 lf 1009,7 hPa 0,0 l/m 2 min 0 min 486 W/m 22,5 km/h (4 Bft) 98,28 %
28.04.2018 15:52 17,9 C 21,1 C 21,1 C 58 % 0 lf 1009,7 hPa 0,0 l/m 2 min 0 min 455 W/m 20,3 km/h (4 Bft) 100,00 %
28.04.2018 15:54 17,9 C 20,6 C 20,6 C 57 % 0 lf 1009,7 hPa 0,0 l/m 2 min 0 min 419 W/m 24,8 km/h (4 Bft) 97,14 %
28.04.2018 15:56 17,9 C 20,0 C 20,6 C 57 % 0 lf 1009,6 hPa 0,0 l/m 2 min 0 min 355 W/m 20,3 km/h (4 Bft) 94,92 %
28.04.2018 15:58 17,9 C 20,6 C 20,0 C 57 % 0 lf 1009,6 hPa 0,0 l/m 2 min 0 min 390 W/m 24,8 km/h (4 Bft) 95,65 %
28.04.2018 16:00 17,9 C 20,0 C 20,0 C 57 % 0 lf 1009,7 hPa 0,0 l/m 2 min 0 min 378 W/m 24,8 km/h (4 Bft) 97,87 %
28.04.2018 16:02 17,9 C 19,4 C 19,4 C 56 % 0 lf 1009,7 hPa 0,0 l/m 0 min 0 min 306 W/m 22,5 km/h (4 Bft) 97,14 %
28.04.2018 16:04 17,9 C 18,9 C 18,9 C 55 % 0 lf 1009,7 hPa 0,0 l/m 0 min 0 min 281 W/m 18,0 km/h (3 Bft) 97,87 %
28.04.2018 16:06 17,8 C 18,9 C 18,9 C 56 % 0 lf 1009,6 hPa 0,0 l/m 0 min 0 min 286 W/m 15,8 km/h (3 Bft) 97,87 %
28.04.2018 16:08 17,8 C 18,9 C 18,9 C 57 % 0 lf 1009,6 hPa 0,0 l/m 0 min 0 min 288 W/m 18,0 km/h (3 Bft) 98,31 %
28.04.2018 16:10 17,7 C 18,9 C 18,3 C 57 % 0 lf 1009,6 hPa 0,0 l/m 0 min 0 min 277 W/m 22,5 km/h (4 Bft) 97,83 %
28.04.2018 16:12 17,7 C 18,3 C 18,3 C 57 % 0 lf 1009,5 hPa 0,0 l/m 0 min 0 min 282 W/m 22,5 km/h (4 Bft) 100,00 %
28.04.2018 16:14 17,6 C 18,9 C 18,3 C 57 % 0 lf 1009,6 hPa 0,0 l/m 0 min 0 min 302 W/m 18,0 km/h (3 Bft) 95,65 %
28.04.2018 16:16 17,6 C 19,4 C 18,9 C 58 % 0 lf 1009,6 hPa 0,0 l/m 2 min 0 min 366 W/m 15,8 km/h (3 Bft) 97,87 %
28.04.2018 16:18 17,6 C 20,0 C 19,4 C 58 % 0 lf 1009,5 hPa 0,0 l/m 2 min 0 min 372 W/m 11,3 km/h (2 Bft) 95,74 %
28.04.2018 16:20 17,6 C 20,0 C 19,4 C 58 % 0 lf 1009,5 hPa 0,0 l/m 2 min 0 min 362 W/m 20,3 km/h (4 Bft) 96,61 %
28.04.2018 16:22 17,6 C 19,4 C 20,0 C 58 % 0 lf 1009,5 hPa 0,0 l/m 2 min 0 min 393 W/m 15,8 km/h (3 Bft) 97,83 %
28.04.2018 16:24 17,6 C 20,0 C 20,6 C 58 % 0 lf 1009,5 hPa 0,0 l/m 2 min 0 min 432 W/m 13,5 km/h (3 Bft) 97,87 %
28.04.2018 16:26 17,6 C 20,0 C 20,0 C 58 % 0 lf 1009,5 hPa 0,0 l/m 2 min 0 min 418 W/m 22,5 km/h (4 Bft) 100,00 %
28.04.2018 16:28 17,7 C 20,6 C 20,0 C 58 % 0 lf 1009,5 hPa 0,0 l/m 2 min 0 min 388 W/m 20,3 km/h (4 Bft) 97,87 %
28.04.2018 16:30 17,7 C 20,0 C 20,0 C 57 % 0 lf 1009,5 hPa 0,0 l/m 2 min 0 min 378 W/m 24,8 km/h (4 Bft) 98,31 %
28.04.2018 16:32 17,7 C 19,4 C 19,4 C 56 % 0 lf 1009,5 hPa 0,0 l/m 2 min 0 min 377 W/m 24,8 km/h (4 Bft) 97,30 %
28.04.2018 16:34 17,7 C 19,4 C 19,4 C 57 % 0 lf 1009,4 hPa 0,0 l/m 0 min 0 min 298 W/m 27,0 km/h (4 Bft) 91,49 %
28.04.2018 16:36 17,7 C 19,4 C 19,4 C 57 % 0 lf 1009,4 hPa 0,0 l/m 0 min 0 min 255 W/m 24,8 km/h (4 Bft) 97,83 %
28.04.2018 16:38 17,7 C 18,9 C 18,9 C 57 % 0 lf 1009,5 hPa 0,0 l/m 0 min 0 min 244 W/m 20,3 km/h (4 Bft) 97,87 %
28.04.2018 16:40 17,7 C 18,9 C 18,3 C 57 % 0 lf 1009,5 hPa 0,0 l/m 0 min 0 min 263 W/m 22,5 km/h (4 Bft) 100,00 %
28.04.2018 16:42 17,6 C 18,3 C 18,3 C 56 % 0 lf 1009,5 hPa 0,0 l/m 2 min 0 min 323 W/m 22,5 km/h (4 Bft) 97,87 %
28.04.2018 16:44 17,6 C 18,9 C 18,9 C 56 % 0 lf 1009,5 hPa 0,0 l/m 2 min 0 min 300 W/m 15,8 km/h (3 Bft) 97,87 %
28.04.2018 16:46 17,6 C 18,3 C 18,3 C 56 % 0 lf 1009,5 hPa 0,0 l/m 0 min 0 min 253 W/m 18,0 km/h (3 Bft) 100,00 %
28.04.2018 16:48 17,5 C 18,3 C 18,3 C 57 % 0 lf 1009,5 hPa 0,0 l/m 0 min 0 min 236 W/m 18,0 km/h (3 Bft) 97,83 %
28.04.2018 16:50 17,5 C 17,8 C 18,9 C 57 % 0 lf 1009,5 hPa 0,0 l/m 0 min 0 min 249 W/m 13,5 km/h (3 Bft) 95,74 %
28.04.2018 16:52 17,5 C 18,3 C 18,3 C 57 % 0 lf 1009,5 hPa 0,0 l/m 0 min 0 min 254 W/m 13,5 km/h (3 Bft) 95,74 %
28.04.2018 16:54 17,5 C 18,3 C 18,3 C 57 % 0 lf 1009,5 hPa 0,0 l/m 0 min 0 min 235 W/m 20,3 km/h (4 Bft) 95,74 %
28.04.2018 16:56 17,4 C 18,3 C 18,3 C 57 % 0 lf 1009,5 hPa 0,0 l/m 0 min 0 min 196 W/m 15,8 km/h (3 Bft) 97,87 %
28.04.2018 16:58 17,4 C 17,8 C 17,8 C 57 % 0 lf 1009,5 hPa 0,0 l/m 0 min 0 min 189 W/m 22,5 km/h (4 Bft) 97,87 %
28.04.2018 17:00 17,4 C 17,8 C 17,8 C 57 % 0 lf 1009,5 hPa 0,0 l/m 0 min 0 min 191 W/m 9,0 km/h (2 Bft) 97,83 %
28.04.2018 17:02 17,4 C 18,3 C 18,3 C 58 % 0 lf 1009,5 hPa 0,0 l/m 0 min 0 min 202 W/m 9,0 km/h (2 Bft) 93,62 %
28.04.2018 17:04 17,4 C 18,3 C 18,3 C 58 % 0 lf 1009,4 hPa 0,0 l/m 0 min 0 min 218 W/m 11,3 km/h (2 Bft) 97,87 %
28.04.2018 17:06 17,4 C 18,3 C 18,3 C 58 % 0 lf 1009,4 hPa 0,0 l/m 0 min 0 min 235 W/m 11,3 km/h (2 Bft) 97,87 %
28.04.2018 17:08 17,4 C 18,9 C 18,3 C 58 % 0 lf 1009,3 hPa 0,0 l/m 0 min 0 min 266 W/m 15,8 km/h (3 Bft) 93,62 %
28.04.2018 17:10 17,4 C 18,9 C 18,3 C 56 % 0 lf 1009,3 hPa 0,0 l/m 2 min 0 min 282 W/m 22,5 km/h (4 Bft) 97,87 %
28.04.2018 17:12 17,4 C 18,9 C 18,3 C 57 % 0 lf 1009,3 hPa 0,0 l/m 2 min 0 min 288 W/m 15,8 km/h (3 Bft) 97,83 %
28.04.2018 17:14 17,4 C 18,9 C 18,3 C 57 % 0 lf 1009,3 hPa 0,0 l/m 2 min 0 min 312 W/m 18,0 km/h (3 Bft) 97,87 %
28.04.2018 17:16 17,4 C 18,9 C 18,9 C 57 % 0 lf 1009,3 hPa 0,0 l/m 2 min 0 min 349 W/m 11,3 km/h (2 Bft) 97,87 %
28.04.2018 17:18 17,5 C 18,9 C 18,9 C 56 % 0 lf 1009,3 hPa 0,0 l/m 2 min 0 min 306 W/m 15,8 km/h (3 Bft) 91,49 %
28.04.2018 17:20 17,5 C 18,9 C 18,9 C 57 % 0 lf 1009,3 hPa 0,0 l/m 2 min 0 min 263 W/m 13,5 km/h (3 Bft) 97,87 %
28.04.2018 17:22 17,5 C 18,9 C 18,9 C 57 % 0 lf 1009,3 hPa 0,0 l/m 2 min 0 min 271 W/m 18,0 km/h (3 Bft) 97,87 %
28.04.2018 17:24 17,6 C 18,9 C 18,9 C 55 % 0 lf 1009,4 hPa 0,0 l/m 2 min 0 min 357 W/m 27,0 km/h (4 Bft) 95,65 %
28.04.2018 17:26 17,6 C 18,9 C 18,9 C 55 % 0 lf 1009,4 hPa 0,0 l/m 2 min 0 min 322 W/m 20,3 km/h (4 Bft) 97,87 %
28.04.2018 17:28 17,6 C 18,9 C 18,9 C 54 % 0 lf 1009,4 hPa 0,0 l/m 2 min 0 min 268 W/m 20,3 km/h (4 Bft) 97,87 %
28.04.2018 17:30 17,6 C 18,3 C 18,3 C 55 % 0 lf 1009,4 hPa 0,0 l/m 2 min 0 min 247 W/m 15,8 km/h (3 Bft) 95,74 %
28.04.2018 17:32 17,6 C 18,3 C 18,3 C 55 % 0 lf 1009,4 hPa 0,0 l/m 2 min 0 min 248 W/m 18,0 km/h (3 Bft) 93,62 %
28.04.2018 17:34 17,6 C 18,3 C 18,3 C 55 % 0 lf 1009,4 hPa 0,0 l/m 2 min 0 min 249 W/m 15,8 km/h (3 Bft) 93,62 %
28.04.2018 17:36 17,6 C 18,9 C 18,3 C 55 % 0 lf 1009,5 hPa 0,0 l/m 2 min 0 min 251 W/m 13,5 km/h (3 Bft) 97,83 %
28.04.2018 17:38 17,6 C 18,9 C 18,9 C 56 % 0 lf 1009,4 hPa 0,0 l/m 2 min 0 min 237 W/m 13,5 km/h (3 Bft) 95,74 %
28.04.2018 17:40 17,6 C 18,9 C 18,3 C 56 % 0 lf 1009,4 hPa 0,0 l/m 0 min 0 min 215 W/m 13,5 km/h (3 Bft) 97,87 %
28.04.2018 17:42 17,6 C 18,3 C 18,3 C 55 % 0 lf 1009,4 hPa 0,0 l/m 0 min 0 min 198 W/m 22,5 km/h (4 Bft) 89,36 %
28.04.2018 17:44 17,6 C 18,3 C 17,8 C 55 % 0 lf 1009,4 hPa 0,0 l/m 0 min 0 min 180 W/m 15,8 km/h (3 Bft) 91,49 %
28.04.2018 17:46 17,6 C 18,3 C 17,8 C 55 % 0 lf 1009,4 hPa 0,0 l/m 0 min 0 min 170 W/m 13,5 km/h (3 Bft) 95,65 %
28.04.2018 17:48 17,5 C 17,8 C 17,2 C 55 % 0 lf 1009,4 hPa 0,0 l/m 0 min 0 min 166 W/m 18,0 km/h (3 Bft) 95,74 %
28.04.2018 17:50 17,4 C 17,8 C 17,2 C 55 % 0 lf 1009,4 hPa 0,0 l/m 0 min 0 min 163 W/m 20,3 km/h (4 Bft) 97,87 %
28.04.2018 17:52 17,4 C 17,8 C 17,2 C 55 % 0 lf 1009,4 hPa 0,0 l/m 0 min 0 min 163 W/m 20,3 km/h (4 Bft) 95,74 %
28.04.2018 17:54 17,4 C 17,8 C 17,2 C 55 % 0 lf 1009,4 hPa 0,0 l/m 0 min 0 min 160 W/m 13,5 km/h (3 Bft) 95,74 %
28.04.2018 17:56 17,3 C 17,8 C 17,2 C 55 % 0 lf 1009,4 hPa 0,0 l/m 0 min 0 min 154 W/m 13,5 km/h (3 Bft) 95,74 %
28.04.2018 17:58 17,3 C 17,8 C 17,2 C 56 % 0 lf 1009,4 hPa 0,0 l/m 0 min 0 min 143 W/m 13,5 km/h (3 Bft) 86,96 %
28.04.2018 18:00 17,3 C 17,2 C 17,2 C 56 % 0 lf 1009,4 hPa 0,0 l/m 0 min 0 min 133 W/m 13,5 km/h (3 Bft) 95,74 %
28.04.2018 18:02 17,2 C 17,2 C 16,7 C 56 % 0 lf 1009,4 hPa 0,0 l/m 0 min 0 min 126 W/m 13,5 km/h (3 Bft) 93,62 %
28.04.2018 18:04 17,2 C 17,2 C 16,7 C 56 % 0 lf 1009,5 hPa 0,0 l/m 0 min 0 min 123 W/m 13,5 km/h (3 Bft) 91,49 %
28.04.2018 18:08 17,2 C 17,2 C 16,7 C 56 % 0 lf 1009,5 hPa 0,0 l/m 0 min 0 min 115 W/m 18,0 km/h (3 Bft) 95,79 %
28.04.2018 18:10 17,1 C 17,2 C 16,7 C 56 % 0 lf 1009,5 hPa 0,0 l/m 0 min 0 min 114 W/m 15,8 km/h (3 Bft) 95,65 %
28.04.2018 18:12 17,1 C 17,2 C 16,7 C 56 % 0 lf 1009,5 hPa 0,0 l/m 0 min 0 min 113 W/m 11,3 km/h (2 Bft) 95,74 %
28.04.2018 18:14 17,1 C 17,2 C 16,7 C 56 % 0 lf 1009,5 hPa 0,0 l/m 0 min 0 min 109 W/m 11,3 km/h (2 Bft) 93,62 %
28.04.2018 18:16 17,1 C 17,2 C 16,7 C 56 % 0 lf 1009,5 hPa 0,0 l/m 0 min 0 min 100 W/m 11,3 km/h (2 Bft) 91,49 %
28.04.2018 18:18 17,0 C 17,2 C 16,7 C 56 % 0 lf 1009,5 hPa 0,0 l/m 0 min 0 min 89 W/m 11,3 km/h (2 Bft) 93,62 %
28.04.2018 18:20 17,0 C 16,7 C 16,1 C 56 % 0 lf 1009,5 hPa 0,0 l/m 0 min 0 min 83 W/m 13,5 km/h (3 Bft) 95,74 %
28.04.2018 18:22 17,0 C 16,7 C 16,1 C 57 % 0 lf 1009,5 hPa 0,0 l/m 0 min 0 min 79 W/m 13,5 km/h (3 Bft) 95,65 %
28.04.2018 18:24 16,9 C 16,7 C 16,1 C 57 % 0 lf 1009,5 hPa 0,0 l/m 0 min 0 min 79 W/m 11,3 km/h (2 Bft) 95,74 %
28.04.2018 18:26 16,9 C 16,7 C 16,1 C 57 % 0 lf 1009,5 hPa 0,0 l/m 0 min 0 min 80 W/m 11,3 km/h (2 Bft) 93,62 %
28.04.2018 18:28 16,9 C 16,7 C 16,1 C 57 % 0 lf 1009,5 hPa 0,0 l/m 0 min 0 min 81 W/m 11,3 km/h (2 Bft) 95,74 %
28.04.2018 18:30 16,9 C 16,7 C 16,1 C 57 % 0 lf 1009,4 hPa 0,0 l/m 0 min 0 min 79 W/m 11,3 km/h (2 Bft) 95,74 %
28.04.2018 18:32 16,9 C 16,7 C 16,1 C 57 % 0 lf 1009,4 hPa 0,0 l/m 0 min 0 min 77 W/m 9,0 km/h (2 Bft) 93,48 %
28.04.2018 18:34 16,8 C 16,7 C 16,1 C 57 % 0 lf 1009,4 hPa 0,0 l/m 0 min 0 min 74 W/m 11,3 km/h (2 Bft) 95,74 %
28.04.2018 18:36 16,8 C 16,7 C 16,1 C 57 % 0 lf 1009,4 hPa 0,0 l/m 0 min 0 min 71 W/m 9,0 km/h (2 Bft) 93,62 %
28.04.2018 18:38 16,8 C 16,7 C 16,1 C 57 % 0 lf 1009,4 hPa 0,0 l/m 0 min 0 min 67 W/m 11,3 km/h (2 Bft) 95,74 %
28.04.2018 18:40 16,8 C 16,7 C 16,1 C 57 % 0 lf 1009,4 hPa 0,0 l/m 0 min 0 min 63 W/m 11,3 km/h (2 Bft) 93,62 %
28.04.2018 18:42 16,8 C 16,7 C 15,6 C 57 % 0 lf 1009,4 hPa 0,0 l/m 0 min 0 min 62 W/m 9,0 km/h (2 Bft) 95,74 %
28.04.2018 18:44 16,8 C 16,7 C 15,6 C 58 % 0 lf 1009,4 hPa 0,0 l/m 0 min 0 min 62 W/m 6,8 km/h (2 Bft) 93,62 %
28.04.2018 18:46 16,7 C 16,1 C 15,6 C 58 % 0 lf 1009,4 hPa 0,0 l/m 0 min 0 min 59 W/m 11,3 km/h (2 Bft) 97,83 %
28.04.2018 18:48 16,7 C 16,1 C 15,6 C 58 % 0 lf 1009,3 hPa 0,0 l/m 0 min 0 min 56 W/m 6,8 km/h (2 Bft) 93,62 %
28.04.2018 18:50 16,7 C 16,1 C 15,6 C 58 % 0 lf 1009,2 hPa 0,0 l/m 0 min 0 min 54 W/m 6,8 km/h (2 Bft) 95,74 %
28.04.2018 18:52 16,7 C 16,1 C 15,6 C 58 % 0 lf 1009,2 hPa 0,0 l/m 0 min 0 min 54 W/m 6,8 km/h (2 Bft) 97,87 %
28.04.2018 18:54 16,7 C 16,1 C 15,6 C 58 % 0 lf 1009,2 hPa 0,0 l/m 0 min 0 min 55 W/m 4,5 km/h (1 Bft) 95,74 %
28.04.2018 18:56 16,7 C 16,1 C 15,6 C 58 % 0 lf 1009,1 hPa 0,0 l/m 0 min 0 min 56 W/m 6,8 km/h (2 Bft) 100,00 %
28.04.2018 18:58 16,7 C 16,1 C 15,6 C 59 % 0 lf 1009,2 hPa 0,0 l/m 0 min 0 min 55 W/m 9,0 km/h (2 Bft) 97,87 %
28.04.2018 19:00 16,7 C 16,1 C 15,6 C 58 % 0 lf 1009,2 hPa 0,0 l/m 0 min 0 min 53 W/m 6,8 km/h (2 Bft) 97,87 %
28.04.2018 19:02 16,6 C 16,1 C 15,6 C 58 % 0 lf 1009,1 hPa 0,0 l/m 0 min 0 min 51 W/m 4,5 km/h (1 Bft) 97,87 %
28.04.2018 19:04 16,6 C 16,1 C 15,6 C 58 % 0 lf 1009,1 hPa 0,0 l/m 0 min 0 min 50 W/m 6,8 km/h (2 Bft) 97,87 %
28.04.2018 19:06 16,6 C 16,1 C 15,6 C 58 % 0 lf 1009,1 hPa 0,0 l/m 0 min 0 min 49 W/m 6,8 km/h (2 Bft) 100,00 %
28.04.2018 19:08 16,6 C 16,1 C 15,6 C 58 % 0 lf 1009,1 hPa 0,0 l/m 0 min 0 min 47 W/m 4,5 km/h (1 Bft) 100,00 %
28.04.2018 19:10 16,6 C 16,1 C 15,6 C 58 % 0 lf 1009,1 hPa 0,0 l/m 0 min 0 min 50 W/m 4,5 km/h (1 Bft) 95,74 %
28.04.2018 19:12 16,6 C 16,1 C 15,6 C 58 % 0 lf 1009,1 hPa 0,0 l/m 0 min 0 min 54 W/m 4,5 km/h (1 Bft) 100,00 %
28.04.2018 19:14 16,6 C 16,1 C 15,6 C 59 % 0 lf 1009,1 hPa 0,0 l/m 0 min 0 min 56 W/m 2,3 km/h (1 Bft) 97,87 %
28.04.2018 19:16 16,6 C 16,1 C 15,6 C 59 % 0 lf 1009,1 hPa 0,0 l/m 0 min 0 min 56 W/m 4,5 km/h (1 Bft) 100,00 %
28.04.2018 19:18 16,5 C 16,1 C 15,6 C 59 % 0 lf 1009,1 hPa 0,0 l/m 0 min 0 min 56 W/m 4,5 km/h (1 Bft) 100,00 %
28.04.2018 19:20 16,5 C 16,1 C 15,6 C 59 % 0 lf 1009,1 hPa 0,0 l/m 0 min 0 min 52 W/m 4,5 km/h (1 Bft) 100,00 %
28.04.2018 19:22 16,5 C 16,1 C 15,6 C 59 % 0 lf 1009,1 hPa 0,0 l/m 0 min 0 min 47 W/m 4,5 km/h (1 Bft) 100,00 %
28.04.2018 19:24 16,5 C 16,1 C 15,6 C 59 % 0 lf 1009,1 hPa 0,0 l/m 0 min 0 min 40 W/m 4,5 km/h (1 Bft) 100,00 %
28.04.2018 19:26 16,5 C 16,1 C 15,6 C 59 % 0 lf 1009,1 hPa 0,0 l/m 0 min 0 min 35 W/m 6,8 km/h (2 Bft) 100,00 %
28.04.2018 19:28 16,4 C 16,1 C 15,0 C 59 % 0 lf 1009,0 hPa 0,0 l/m 0 min 0 min 33 W/m 4,5 km/h (1 Bft) 95,74 %
28.04.2018 19:30 16,4 C 16,1 C 15,0 C 59 % 0 lf 1009,1 hPa 0,0 l/m 0 min 0 min 33 W/m 6,8 km/h (2 Bft) 100,00 %
28.04.2018 19:32 16,4 C 15,6 C 15,0 C 59 % 0 lf 1009,0 hPa 0,0 l/m 0 min 0 min 32 W/m 9,0 km/h (2 Bft) 100,00 %
28.04.2018 19:34 16,4 C 15,6 C 15,0 C 59 % 0 lf 1009,0 hPa 0,0 l/m 0 min 0 min 32 W/m 9,0 km/h (2 Bft) 97,87 %
28.04.2018 19:36 16,4 C 15,6 C 15,0 C 60 % 0 lf 1009,0 hPa 0,0 l/m 0 min 0 min 31 W/m 6,8 km/h (2 Bft) 100,00 %
28.04.2018 19:38 16,4 C 15,6 C 15,0 C 60 % 0 lf 1009,0 hPa 0,0 l/m 0 min 0 min 28 W/m 6,8 km/h (2 Bft) 100,00 %
28.04.2018 19:40 16,4 C 15,6 C 15,0 C 61 % 0 lf 1009,0 hPa 0,0 l/m 0 min 0 min 28 W/m 6,8 km/h (2 Bft) 95,74 %
28.04.2018 19:42 16,4 C 15,6 C 15,0 C 61 % 0 lf 1009,0 hPa 0,0 l/m 0 min 0 min 26 W/m 6,8 km/h (2 Bft) 100,00 %
28.04.2018 19:44 16,4 C 15,6 C 14,4 C 62 % 0 lf 1009,0 hPa 0,0 l/m 0 min 0 min 26 W/m 4,5 km/h (1 Bft) 100,00 %
28.04.2018 19:46 16,4 C 15,6 C 14,4 C 62 % 0 lf 1009,0 hPa 0,0 l/m 0 min 0 min 25 W/m 4,5 km/h (1 Bft) 97,87 %
28.04.2018 19:48 16,4 C 15,6 C 14,4 C 62 % 0 lf 1009,0 hPa 0,0 l/m 0 min 0 min 23 W/m 4,5 km/h (1 Bft) 95,74 %
28.04.2018 19:50 16,3 C 15,6 C 14,4 C 61 % 0 lf 1009,1 hPa 0,0 l/m 0 min 0 min 22 W/m 4,5 km/h (1 Bft) 97,87 %
28.04.2018 19:52 16,3 C 15,6 C 14,4 C 62 % 0 lf 1009,1 hPa 0,0 l/m 0 min 0 min 21 W/m 4,5 km/h (1 Bft) 100,00 %
28.04.2018 19:54 16,3 C 15,6 C 14,4 C 60 % 0 lf 1009,1 hPa 0,0 l/m 0 min 0 min 20 W/m 9,0 km/h (2 Bft) 100,00 %
28.04.2018 19:56 16,3 C 15,6 C 14,4 C 60 % 0 lf 1009,1 hPa 0,0 l/m 0 min 0 min 19 W/m 9,0 km/h (2 Bft) 100,00 %
28.04.2018 19:58 16,2 C 15,6 C 14,4 C 59 % 0 lf 1009,2 hPa 0,0 l/m 0 min 0 min 18 W/m 6,8 km/h (2 Bft) 97,87 %
28.04.2018 20:00 16,2 C 15,6 C 14,4 C 59 % 0 lf 1009,1 hPa 0,0 l/m 0 min 0 min 18 W/m 4,5 km/h (1 Bft) 100,00 %
28.04.2018 20:02 16,2 C 15,6 C 14,4 C 59 % 0 lf 1009,2 hPa 0,0 l/m 0 min 0 min 16 W/m 4,5 km/h (1 Bft) 100,00 %
28.04.2018 20:04 16,1 C 15,6 C 14,4 C 59 % 0 lf 1009,2 hPa 0,0 l/m 0 min 0 min 14 W/m 6,8 km/h (2 Bft) 97,87 %
28.04.2018 20:06 16,1 C 15,6 C 13,9 C 58 % 0 lf 1009,2 hPa 0,0 l/m 0 min 0 min 12 W/m 11,3 km/h (2 Bft) 97,83 %
28.04.2018 20:08 16,1 C 15,6 C 14,4 C 58 % 0 lf 1009,3 hPa 0,0 l/m 0 min 0 min 12 W/m 9,0 km/h (2 Bft) 97,87 %
28.04.2018 20:10 16,1 C 15,6 C 14,4 C 58 % 0 lf 1009,2 hPa 0,0 l/m 0 min 0 min 12 W/m 11,3 km/h (2 Bft) 91,49 %
28.04.2018 20:12 16,0 C 15,6 C 14,4 C 58 % 0 lf 1009,3 hPa 0,0 l/m 0 min 0 min 11 W/m 6,8 km/h (2 Bft) 91,49 %
28.04.2018 20:14 16,0 C 15,0 C 13,9 C 59 % 0 lf 1009,3 hPa 0,0 l/m 0 min 0 min 10 W/m 6,8 km/h (2 Bft) 95,74 %
28.04.2018 20:16 15,9 C 15,0 C 13,9 C 59 % 0 lf 1009,2 hPa 0,0 l/m 0 min 0 min 9 W/m 6,8 km/h (2 Bft) 95,74 %
28.04.2018 20:18 15,9 C 15,0 C 13,9 C 59 % 0 lf 1009,4 hPa 0,0 l/m 0 min 0 min 7 W/m 6,8 km/h (2 Bft) 93,62 %
28.04.2018 20:20 15,9 C 15,0 C 13,9 C 59 % 0 lf 1009,4 hPa 0,0 l/m 0 min 0 min 7 W/m 4,5 km/h (1 Bft) 91,30 %
28.04.2018 20:22 15,9 C 15,0 C 13,9 C 59 % 0 lf 1009,3 hPa 0,0 l/m 0 min 0 min 5 W/m 4,5 km/h (1 Bft) 91,49 %
28.04.2018 20:24 15,9 C 15,0 C 13,9 C 60 % 0 lf 1009,3 hPa 0,0 l/m 0 min 0 min 5 W/m 4,5 km/h (1 Bft) 93,62 %
28.04.2018 20:26 15,9 C 15,0 C 13,9 C 60 % 0 lf 1009,3 hPa 0,0 l/m 0 min 0 min 5 W/m 4,5 km/h (1 Bft) 93,62 %
28.04.2018 20:28 15,9 C 15,0 C 13,9 C 60 % 0 lf 1009,3 hPa 0,0 l/m 0 min 0 min 5 W/m 4,5 km/h (1 Bft) 93,62 %
28.04.2018 20:30 15,9 C 15,0 C 13,3 C 60 % 0 lf 1009,4 hPa 0,0 l/m 0 min 0 min 1 W/m 4,5 km/h (1 Bft) 93,48 %
28.04.2018 20:32 15,8 C 15,0 C 13,3 C 60 % 0 lf 1009,4 hPa 0,0 l/m 0 min 0 min 0 W/m 6,8 km/h (2 Bft) 91,49 %
28.04.2018 20:34 15,8 C 15,0 C 13,3 C 61 % 0 lf 1009,4 hPa 0,0 l/m 0 min 0 min 0 W/m 6,8 km/h (2 Bft) 91,49 %
28.04.2018 20:36 15,8 C 15,0 C 13,3 C 61 % 0 lf 1009,4 hPa 0,0 l/m 0 min 0 min 0 W/m 6,8 km/h (2 Bft) 89,36 %
28.04.2018 20:38 15,8 C 15,0 C 13,3 C 61 % 0 lf 1009,4 hPa 0,0 l/m 0 min 0 min 0 W/m 6,8 km/h (2 Bft) 95,74 %
28.04.2018 20:40 15,8 C 15,0 C 13,3 C 61 % 0 lf 1009,4 hPa 0,0 l/m 0 min 0 min 0 W/m 6,8 km/h (2 Bft) 91,49 %
28.04.2018 20:42 15,7 C 15,0 C 13,3 C 61 % 0 lf 1009,4 hPa 0,0 l/m 0 min 0 min 0 W/m 4,5 km/h (1 Bft) 91,30 %
28.04.2018 20:44 15,7 C 14,4 C 13,3 C 61 % 0 lf 1009,5 hPa 0,0 l/m 0 min 0 min 0 W/m 4,5 km/h (1 Bft) 95,74 %
28.04.2018 20:46 15,7 C 14,4 C 13,3 C 61 % 0 lf 1009,5 hPa 0,0 l/m 0 min 0 min 0 W/m 4,5 km/h (1 Bft) 93,62 %
28.04.2018 20:48 15,7 C 14,4 C 13,3 C 61 % 0 lf 1009,5 hPa 0,0 l/m 0 min 0 min 0 W/m 6,8 km/h (2 Bft) 91,49 %
28.04.2018 20:50 15,7 C 14,4 C 13,3 C 61 % 0 lf 1009,7 hPa 0,0 l/m 0 min 0 min 0 W/m 4,5 km/h (1 Bft) 91,49 %
28.04.2018 20:52 15,7 C 14,4 C 13,3 C 62 % 0 lf 1009,6 hPa 0,0 l/m 0 min 0 min 0 W/m 4,5 km/h (1 Bft) 93,62 %
28.04.2018 20:54 15,7 C 14,4 C 12,8 C 62 % 0 lf 1009,7 hPa 0,0 l/m 0 min 0 min 0 W/m 4,5 km/h (1 Bft) 97,83 %
28.04.2018 20:56 15,6 C 14,4 C 12,8 C 62 % 0 lf 1009,6 hPa 0,0 l/m 0 min 0 min 0 W/m 4,5 km/h (1 Bft) 95,74 %
28.04.2018 20:58 15,6 C 14,4 C 12,8 C 62 % 0 lf 1009,6 hPa 0,0 l/m 0 min 0 min 0 W/m 4,5 km/h (1 Bft) 95,74 %
28.04.2018 21:00 15,6 C 14,4 C 12,8 C 62 % 0 lf 1009,7 hPa 0,0 l/m 0 min 0 min 0 W/m 4,5 km/h (1 Bft) 97,87 %
28.04.2018 21:02 15,6 C 14,4 C 12,8 C 62 % 0 lf 1009,7 hPa 0,0 l/m 0 min 0 min 0 W/m 6,8 km/h (2 Bft) 100,00 %
28.04.2018 21:04 15,5 C 14,4 C 13,3 C 62 % 0 lf 1009,7 hPa 0,0 l/m 0 min 0 min 0 W/m 6,8 km/h (2 Bft) 97,87 %
28.04.2018 21:06 15,5 C 14,4 C 12,8 C 62 % 0 lf 1009,6 hPa 0,0 l/m 0 min 0 min 0 W/m 9,0 km/h (2 Bft) 97,83 %
28.04.2018 21:08 15,4 C 14,4 C 13,3 C 61 % 0 lf 1009,7 hPa 0,0 l/m 0 min 0 min 0 W/m 9,0 km/h (2 Bft) 97,87 %
28.04.2018 21:10 15,4 C 14,4 C 13,3 C 60 % 0 lf 1009,6 hPa 0,0 l/m 0 min 0 min 0 W/m 6,8 km/h (2 Bft) 100,00 %
28.04.2018 21:12 15,4 C 14,4 C 13,3 C 60 % 0 lf 1009,7 hPa 0,0 l/m 0 min 0 min 0 W/m 11,3 km/h (2 Bft) 100,00 %
28.04.2018 21:14 15,3 C 14,4 C 13,3 C 59 % 0 lf 1009,7 hPa 0,0 l/m 0 min 0 min 0 W/m 11,3 km/h (2 Bft) 100,00 %
28.04.2018 21:16 15,3 C 14,4 C 13,3 C 59 % 0 lf 1009,7 hPa 0,0 l/m 0 min 0 min 0 W/m 11,3 km/h (2 Bft) 97,87 %
28.04.2018 21:18 15,3 C 14,4 C 13,3 C 59 % 0 lf 1009,7 hPa 0,0 l/m 0 min 0 min 0 W/m 9,0 km/h (2 Bft) 95,65 %
28.04.2018 21:20 15,3 C 14,4 C 13,3 C 59 % 0 lf 1009,7 hPa 0,0 l/m 0 min 0 min 0 W/m 6,8 km/h (2 Bft) 95,74 %
28.04.2018 21:22 15,2 C 14,4 C 13,3 C 58 % 0 lf 1009,7 hPa 0,0 l/m 0 min 0 min 0 W/m 9,0 km/h (2 Bft) 97,87 %
28.04.2018 21:24 15,2 C 14,4 C 13,3 C 58 % 0 lf 1009,8 hPa 0,0 l/m 0 min 0 min 0 W/m 11,3 km/h (2 Bft) 97,87 %
28.04.2018 21:26 15,2 C 14,4 C 13,3 C 58 % 0 lf 1009,8 hPa 0,0 l/m 0 min 0 min 0 W/m 9,0 km/h (2 Bft) 97,87 %
28.04.2018 21:28 15,2 C 14,4 C 13,3 C 58 % 0 lf 1009,9 hPa 0,0 l/m 0 min 0 min 0 W/m 9,0 km/h (2 Bft) 97,83 %
28.04.2018 21:30 15,2 C 14,4 C 13,3 C 58 % 0 lf 1009,8 hPa 0,0 l/m 0 min 0 min 0 W/m 6,8 km/h (2 Bft) 95,74 %
28.04.2018 21:32 15,2 C 14,4 C 13,3 C 58 % 0 lf 1009,8 hPa 0,0 l/m 0 min 0 min 0 W/m 11,3 km/h (2 Bft) 95,74 %
28.04.2018 21:34 15,2 C 14,4 C 13,3 C 58 % 0 lf 1009,8 hPa 0,0 l/m 0 min 0 min 0 W/m 9,0 km/h (2 Bft) 97,87 %
28.04.2018 21:36 15,2 C 14,4 C 13,3 C 58 % 0 lf 1009,9 hPa 0,0 l/m 0 min 0 min 0 W/m 9,0 km/h (2 Bft) 97,87 %
28.04.2018 21:38 15,1 C 14,4 C 13,3 C 58 % 0 lf 1009,9 hPa 0,0 l/m 0 min 0 min 0 W/m 9,0 km/h (2 Bft) 97,87 %
28.04.2018 21:40 15,1 C 14,4 C 13,3 C 58 % 0 lf 1009,9 hPa 0,0 l/m 0 min 0 min 0 W/m 6,8 km/h (2 Bft) 95,74 %
28.04.2018 21:42 15,1 C 14,4 C 13,3 C 58 % 0 lf 1009,9 hPa 0,0 l/m 0 min 0 min 0 W/m 6,8 km/h (2 Bft) 97,83 %
28.04.2018 21:44 15,1 C 14,4 C 13,3 C 58 % 0 lf 1009,9 hPa 0,0 l/m 0 min 0 min 0 W/m 9,0 km/h (2 Bft) 97,87 %
28.04.2018 21:46 15,1 C 14,4 C 13,3 C 58 % 0 lf 1009,9 hPa 0,0 l/m 0 min 0 min 0 W/m 4,5 km/h (1 Bft) 95,74 %
28.04.2018 21:48 15,1 C 14,4 C 12,8 C 59 % 0 lf 1009,9 hPa 0,0 l/m 0 min 0 min 0 W/m 11,3 km/h (2 Bft) 95,74 %
28.04.2018 21:50 15,1 C 14,4 C 13,3 C 58 % 0 lf 1010,0 hPa 0,0 l/m 0 min 0 min 0 W/m 11,3 km/h (2 Bft) 97,87 %
28.04.2018 21:52 15,1 C 14,4 C 13,3 C 58 % 0 lf 1010,0 hPa 0,0 l/m 0 min 0 min 0 W/m 13,5 km/h (3 Bft) 97,83 %
28.04.2018 21:54 15,1 C 14,4 C 13,3 C 59 % 0 lf 1010,0 hPa 0,0 l/m 0 min 0 min 0 W/m 11,3 km/h (2 Bft) 97,87 %
28.04.2018 21:56 15,1 C 14,4 C 13,3 C 59 % 0 lf 1010,0 hPa 0,0 l/m 0 min 0 min 0 W/m 13,5 km/h (3 Bft) 95,74 %
28.04.2018 21:58 15,0 C 14,4 C 13,3 C 59 % 0 lf 1010,1 hPa 0,0 l/m 0 min 0 min 0 W/m 6,8 km/h (2 Bft) 97,87 %
28.04.2018 22:00 15,0 C 14,4 C 13,3 C 59 % 0 lf 1010,1 hPa 0,0 l/m 0 min 0 min 0 W/m 9,0 km/h (2 Bft) 93,62 %
28.04.2018 22:02 15,0 C 14,4 C 13,3 C 59 % 0 lf 1010,1 hPa 0,0 l/m 0 min 0 min 0 W/m 13,5 km/h (3 Bft) 95,74 %
28.04.2018 22:04 15,0 C 14,4 C 13,3 C 59 % 0 lf 1010,2 hPa 0,0 l/m 0 min 0 min 0 W/m 11,3 km/h (2 Bft) 97,83 %
28.04.2018 22:06 15,0 C 14,4 C 13,3 C 59 % 0 lf 1010,2 hPa 0,0 l/m 0 min 0 min 0 W/m 11,3 km/h (2 Bft) 95,74 %
28.04.2018 22:08 15,0 C 14,4 C 13,3 C 59 % 0 lf 1010,2 hPa 0,0 l/m 0 min 0 min 0 W/m 18,0 km/h (3 Bft) 93,62 %
28.04.2018 22:10 15,0 C 14,4 C 13,3 C 59 % 0 lf 1010,2 hPa 0,0 l/m 0 min 0 min 0 W/m 15,8 km/h (3 Bft) 100,00 %
28.04.2018 22:12 14,9 C 14,4 C 13,3 C 60 % 0 lf 1010,1 hPa 0,0 l/m 0 min 0 min 0 W/m 13,5 km/h (3 Bft) 97,87 %
28.04.2018 22:14 14,9 C 14,4 C 13,3 C 59 % 0 lf 1010,2 hPa 0,0 l/m 0 min 0 min 0 W/m 13,5 km/h (3 Bft) 100,00 %
28.04.2018 22:16 14,9 C 14,4 C 13,3 C 60 % 0 lf 1010,1 hPa 0,0 l/m 0 min 0 min 0 W/m 11,3 km/h (2 Bft) 100,00 %
28.04.2018 22:18 14,9 C 14,4 C 13,3 C 60 % 0 lf 1010,3 hPa 0,0 l/m 0 min 0 min 0 W/m 13,5 km/h (3 Bft) 95,74 %
28.04.2018 22:20 14,9 C 14,4 C 13,3 C 61 % 0 lf 1010,2 hPa 0,0 l/m 0 min 0 min 0 W/m 9,0 km/h (2 Bft) 97,87 %
28.04.2018 22:22 14,9 C 14,4 C 12,8 C 61 % 0 lf 1010,3 hPa 0,0 l/m 0 min 0 min 0 W/m 9,0 km/h (2 Bft) 95,74 %
28.04.2018 22:24 14,9 C 13,9 C 12,8 C 61 % 0 lf 1010,3 hPa 0,0 l/m 0 min 0 min 0 W/m 4,5 km/h (1 Bft) 97,87 %
28.04.2018 22:26 14,9 C 13,9 C 12,8 C 62 % 0 lf 1010,4 hPa 0,0 l/m 0 min 0 min 0 W/m 6,8 km/h (2 Bft) 95,74 %
28.04.2018 22:28 14,9 C 13,9 C 12,8 C 62 % 0 lf 1010,4 hPa 0,0 l/m 0 min 0 min 0 W/m 4,5 km/h (1 Bft) 95,65 %
28.04.2018 22:30 14,9 C 13,9 C 12,8 C 63 % 0 lf 1010,5 hPa 0,0 l/m 0 min 0 min 0 W/m 4,5 km/h (1 Bft) 93,62 %
28.04.2018 22:32 14,9 C 13,9 C 12,8 C 63 % 0 lf 1010,4 hPa 0,0 l/m 0 min 0 min 0 W/m 9,0 km/h (2 Bft) 97,87 %
28.04.2018 22:34 14,9 C 13,9 C 12,2 C 64 % 0 lf 1010,4 hPa 0,0 l/m 0 min 0 min 0 W/m 6,8 km/h (2 Bft) 97,87 %
28.04.2018 22:36 14,8 C 13,9 C 12,2 C 64 % 0 lf 1010,3 hPa 0,0 l/m 0 min 0 min 0 W/m 6,8 km/h (2 Bft) 95,74 %
28.04.2018 22:38 14,8 C 13,9 C 12,2 C 64 % 0 lf 1010,3 hPa 0,0 l/m 0 min 0 min 0 W/m 9,0 km/h (2 Bft) 97,87 %
28.04.2018 22:40 14,8 C 13,3 C 12,2 C 64 % 0 lf 1010,3 hPa 0,0 l/m 0 min 0 min 0 W/m 11,3 km/h (2 Bft) 95,65 %
28.04.2018 22:42 14,7 C 13,3 C 12,2 C 64 % 0 lf 1010,4 hPa 0,0 l/m 0 min 0 min 0 W/m 9,0 km/h (2 Bft) 97,87 %
28.04.2018 22:44 14,7 C 13,3 C 12,2 C 64 % 0 lf 1010,3 hPa 0,0 l/m 0 min 0 min 0 W/m 9,0 km/h (2 Bft) 97,87 %
28.04.2018 22:46 14,7 C 13,3 C 12,2 C 64 % 0 lf 1010,3 hPa 0,0 l/m 0 min 0 min 0 W/m 9,0 km/h (2 Bft) 93,62 %
28.04.2018 22:48 14,6 C 13,3 C 12,2 C 65 % 0 lf 1010,2 hPa 0,0 l/m 0 min 0 min 0 W/m 6,8 km/h (2 Bft) 95,74 %
28.04.2018 22:50 14,6 C 13,3 C 12,2 C 65 % 0 lf 1010,2 hPa 0,0 l/m 0 min 0 min 0 W/m 11,3 km/h (2 Bft) 95,74 %
28.04.2018 22:52 14,6 C 13,3 C 12,2 C 65 % 0 lf 1010,3 hPa 0,0 l/m 0 min 0 min 0 W/m 9,0 km/h (2 Bft) 95,65 %
28.04.2018 22:54 14,5 C 13,3 C 11,7 C 65 % 0 lf 1010,2 hPa 0,0 l/m 0 min 0 min 0 W/m 6,8 km/h (2 Bft) 97,87 %
28.04.2018 22:56 14,5 C 13,3 C 11,7 C 65 % 0 lf 1010,3 hPa 0,0 l/m 0 min 0 min 0 W/m 6,8 km/h (2 Bft) 93,62 %
28.04.2018 22:58 14,4 C 13,3 C 11,7 C 65 % 0 lf 1010,3 hPa 0,0 l/m 0 min 0 min 0 W/m 11,3 km/h (2 Bft) 97,87 %
28.04.2018 23:00 14,4 C 13,3 C 11,7 C 65 % 0 lf 1010,3 hPa 0,0 l/m 0 min 0 min 0 W/m 6,8 km/h (2 Bft) 95,74 %
28.04.2018 23:02 14,4 C 12,8 C 11,7 C 65 % 0 lf 1010,4 hPa 0,0 l/m 0 min 0 min 0 W/m 6,8 km/h (2 Bft) 97,87 %
28.04.2018 23:04 14,3 C 12,8 C 11,7 C 65 % 0 lf 1010,4 hPa 0,0 l/m 0 min 0 min 0 W/m 9,0 km/h (2 Bft) 97,83 %
28.04.2018 23:06 14,2 C 12,8 C 11,7 C 65 % 0 lf 1010,4 hPa 0,0 l/m 0 min 0 min 0 W/m 6,8 km/h (2 Bft) 97,87 %
28.04.2018 23:08 14,2 C 12,8 C 11,7 C 65 % 0 lf 1010,3 hPa 0,0 l/m 0 min 0 min 0 W/m 6,8 km/h (2 Bft) 95,74 %
28.04.2018 23:10 14,2 C 13,3 C 11,7 C 65 % 0 lf 1010,4 hPa 0,0 l/m 0 min 0 min 0 W/m 9,0 km/h (2 Bft) 97,87 %
28.04.2018 23:12 14,2 C 12,8 C 11,7 C 65 % 0 lf 1010,4 hPa 0,0 l/m 0 min 0 min 0 W/m 6,8 km/h (2 Bft) 93,62 %
28.04.2018 23:14 14,2 C 12,8 C 11,7 C 65 % 0 lf 1010,4 hPa 0,0 l/m 0 min 0 min 0 W/m 9,0 km/h (2 Bft) 97,83 %
28.04.2018 23:16 14,2 C 12,8 C 11,7 C 65 % 0 lf 1010,3 hPa 0,0 l/m 0 min 0 min 0 W/m 11,3 km/h (2 Bft) 93,62 %
28.04.2018 23:18 14,1 C 12,8 C 11,7 C 65 % 0 lf 1010,4 hPa 0,0 l/m 0 min 0 min 0 W/m 13,5 km/h (3 Bft) 95,74 %
28.04.2018 23:20 14,0 C 12,8 C 11,7 C 65 % 0 lf 1010,4 hPa 0,0 l/m 0 min 0 min 0 W/m 11,3 km/h (2 Bft) 93,62 %
28.04.2018 23:22 14,0 C 12,8 C 11,7 C 66 % 0 lf 1010,5 hPa 0,0 l/m 0 min 0 min 0 W/m 9,0 km/h (2 Bft) 93,62 %
28.04.2018 23:24 13,9 C 12,8 C 11,7 C 66 % 0 lf 1010,4 hPa 0,0 l/m 0 min 0 min 0 W/m 11,3 km/h (2 Bft) 95,74 %
28.04.2018 23:26 13,9 C 12,8 C 11,7 C 66 % 0 lf 1010,5 hPa 0,0 l/m 0 min 0 min 0 W/m 11,3 km/h (2 Bft) 97,83 %
28.04.2018 23:28 13,8 C 12,8 C 11,7 C 66 % 0 lf 1010,5 hPa 0,0 l/m 0 min 0 min 0 W/m 11,3 km/h (2 Bft) 97,87 %
28.04.2018 23:30 13,8 C 12,8 C 11,7 C 66 % 0 lf 1010,4 hPa 0,0 l/m 0 min 0 min 0 W/m 13,5 km/h (3 Bft) 93,62 %
28.04.2018 23:32 13,8 C 12,8 C 11,7 C 66 % 0 lf 1010,4 hPa 0,0 l/m 0 min 0 min 0 W/m 11,3 km/h (2 Bft) 97,87 %
28.04.2018 23:34 13,7 C 12,8 C 11,7 C 66 % 0 lf 1010,4 hPa 0,0 l/m 0 min 0 min 0 W/m 9,0 km/h (2 Bft) 95,74 %
28.04.2018 23:36 13,7 C 12,8 C 11,7 C 66 % 0 lf 1010,5 hPa 0,0 l/m 0 min 0 min 0 W/m 9,0 km/h (2 Bft) 95,74 %
28.04.2018 23:38 13,7 C 12,8 C 11,1 C 66 % 0 lf 1010,5 hPa 0,0 l/m 0 min 0 min 0 W/m 11,3 km/h (2 Bft) 95,65 %
28.04.2018 23:40 13,7 C 12,8 C 11,1 C 67 % 0 lf 1010,5 hPa 0,0 l/m 0 min 0 min 0 W/m 9,0 km/h (2 Bft) 93,62 %
28.04.2018 23:42 13,6 C 12,8 C 11,1 C 67 % 0 lf 1010,5 hPa 0,0 l/m 0 min 0 min 0 W/m 11,3 km/h (2 Bft) 97,87 %
28.04.2018 23:44 13,6 C 12,2 C 11,1 C 67 % 0 lf 1010,5 hPa 0,0 l/m 0 min 0 min 0 W/m 6,8 km/h (2 Bft) 97,87 %
28.04.2018 23:46 13,6 C 12,2 C 11,1 C 67 % 0 lf 1010,4 hPa 0,0 l/m 0 min 0 min 0 W/m 9,0 km/h (2 Bft) 97,87 %
28.04.2018 23:48 13,5 C 12,2 C 10,6 C 67 % 0 lf 1010,5 hPa 0,0 l/m 0 min 0 min 0 W/m 6,8 km/h (2 Bft) 93,62 %
28.04.2018 23:50 13,5 C 12,2 C 10,6 C 67 % 0 lf 1010,3 hPa 0,0 l/m 0 min 0 min 0 W/m 6,8 km/h (2 Bft) 93,48 %
28.04.2018 23:52 13,4 C 11,7 C 10,6 C 67 % 0 lf 1010,3 hPa 0,0 l/m 0 min 0 min 0 W/m 4,5 km/h (1 Bft) 95,74 %
28.04.2018 23:54 13,4 C 11,7 C 10,0 C 67 % 0 lf 1010,3 hPa 0,0 l/m 0 min 0 min 0 W/m 2,3 km/h (1 Bft) 97,87 %
28.04.2018 23:56 13,4 C 11,7 C 10,0 C 67 % 0 lf 1010,2 hPa 0,0 l/m 0 min 0 min 0 W/m 6,8 km/h (2 Bft) 95,74 %
28.04.2018 23:58 13,4 C 11,7 C 10,0 C 67 % 0 lf 1010,2 hPa 0,0 l/m 0 min 0 min 0 W/m 6,8 km/h (2 Bft) 93,62 %
_ Min-Zeit 00:32 00:00 00:00 14:38 00:00 00:02 - - - - 19:14 05:45
Minimum _ 12,1 C 11,1 C 8,9 C 53 % 0 lf 1005,9 hPa - - - - 2,3 km/h (1 Bft) 22,81 %
_ Max-Zeit 14:44 13:50 15:46 00:10 00:00 22:30 00:00 10:08 00:00 13:44 08:58 00:14
Maximum _ 18,3 C 25,6 C 22,8 C 77 % 0 lf 1010,5 hPa 0,0 l/m 4 min 0 min 1092 W/m 40,6 km/h
W (6 Bft)
100,00 %
Durchschnitt _ 14,9 C 15,6 C 14,5 C 65 % 0 lf 1008,9 hPa #0,0 l/m #6:08 h #0 min. 276 W/m 17,0 km/h (3 Bft) 95,95 %
© 2018 W. Hausmann